AFR248 LFPG-RPLL

Flight info

Callsign AFR248
Flight time 12h 38m
Altitude 31000
Route LANVI DCT LUPEN UM164 UTABA DCT INPUL/N0490F330 DCT VATET DCT GOTAR DCT MOPUG DCT LUGEB DCT UDROS UM859 KARDE UN644 ROLIN DCT TETRO DCT BARAD DCT LUSAL DCT RASAM L88 METKA/N0487F350 B476 DARVA/K0906F350 T898 OGOLI DCT SR L163 TISIB L141 KAMUD/K0900S1070 W186 SADAN Y1 LUSMA/K0895S1130 Y1 OMBON W245 OVRAL B330 KWE W181 DUDIT A599 POU B330 TAMOT/N0486F390 B330 BIGEX DCT POVAM DCT NOPER V642 NOMAN A461 AVMUP W16 TADEL
Aircraft B77W/H-SDE1E2E3FGHIJ2J3J4J5M1RWXY/LB1D1

Departure

Time 2026-05-07 11:41
Airport Charles de Gaulle International Airport (LFPG)

Arrival

Time 2026-05-08 00:20
Airport Ninoy Aquino International Airport (RPLL)
Time Latitude Longitude Altitude Speed Heading
2026-05-07 10:05 49.00170 2.56248 368 ft 0 kts 344°
2026-05-07 10:12 49.00592 2.58370 367 ft 0 kts 86°
2026-05-07 11:10 49.00590 2.58344 366 ft 4 kts 85°
2026-05-07 11:10 49.00587 2.58306 364 ft 4 kts 94°
2026-05-07 11:10 49.00590 2.58273 365 ft 4 kts 95°
2026-05-07 11:10 49.00590 2.58233 365 ft 4 kts 78°
2026-05-07 11:11 49.00581 2.58202 364 ft 1 kts 39°
2026-05-07 11:11 49.00580 2.58201 364 ft 0 kts 38°
2026-05-07 11:16 49.00583 2.58204 364 ft 1 kts 38°
2026-05-07 11:16 49.00591 2.58212 365 ft 2 kts 34°
2026-05-07 11:17 49.00605 2.58224 366 ft 3 kts 27°
2026-05-07 11:17 49.00624 2.58234 366 ft 3 kts 13°
2026-05-07 11:17 49.00649 2.58236 364 ft 4 kts 359°
2026-05-07 11:17 49.00679 2.58235 365 ft 5 kts 357°
2026-05-07 11:18 49.00713 2.58232 362 ft 5 kts 356°
2026-05-07 11:18 49.00752 2.58226 359 ft 6 kts 352°
2026-05-07 11:18 49.00791 2.58204 368 ft 6 kts 328°
2026-05-07 11:18 49.00820 2.58158 366 ft 6 kts 311°
2026-05-07 11:19 49.00857 2.58117 366 ft 7 kts 335°
2026-05-07 11:19 49.00906 2.58102 361 ft 7 kts 353°
2026-05-07 11:19 49.00958 2.58094 367 ft 8 kts 355°
2026-05-07 11:19 49.01015 2.58087 362 ft 8 kts 355°
2026-05-07 11:20 49.01075 2.58079 366 ft 9 kts 355°
2026-05-07 11:20 49.01139 2.58071 360 ft 9 kts 355°
2026-05-07 11:20 49.01206 2.58062 366 ft 10 kts 355°
2026-05-07 11:20 49.01275 2.58054 361 ft 10 kts 355°
2026-05-07 11:21 49.01346 2.58045 363 ft 10 kts 355°
2026-05-07 11:21 49.01420 2.58036 359 ft 11 kts 355°
2026-05-07 11:21 49.01497 2.58027 361 ft 11 kts 355°
2026-05-07 11:21 49.01573 2.58018 366 ft 11 kts 355°
2026-05-07 11:22 49.01650 2.58008 363 ft 11 kts 355°
2026-05-07 11:22 49.01726 2.57999 365 ft 11 kts 355°
2026-05-07 11:22 49.01803 2.57989 365 ft 11 kts 355°
2026-05-07 11:22 49.01878 2.57967 366 ft 11 kts 340°
2026-05-07 11:23 49.01943 2.57905 368 ft 11 kts 316°
2026-05-07 11:23 49.01983 2.57807 366 ft 11 kts 292°
2026-05-07 11:23 49.01997 2.57693 363 ft 11 kts 269°
2026-05-07 11:23 49.01993 2.57576 365 ft 11 kts 266°
2026-05-07 11:24 49.01987 2.57459 362 ft 11 kts 264°
2026-05-07 11:24 49.01978 2.57343 362 ft 11 kts 264°
2026-05-07 11:24 49.01973 2.57227 363 ft 11 kts 266°
2026-05-07 11:24 49.01968 2.57110 363 ft 11 kts 266°
2026-05-07 11:25 49.01963 2.56995 365 ft 11 kts 266°
2026-05-07 11:25 49.01957 2.56879 361 ft 11 kts 265°
2026-05-07 11:25 49.01950 2.56762 359 ft 11 kts 265°
2026-05-07 11:25 49.01944 2.56646 366 ft 11 kts 264°
2026-05-07 11:26 49.01936 2.56530 362 ft 11 kts 264°
2026-05-07 11:26 49.01929 2.56413 365 ft 11 kts 266°
2026-05-07 11:26 49.01925 2.56297 364 ft 11 kts 266°
2026-05-07 11:26 49.01919 2.56180 365 ft 11 kts 265°
2026-05-07 11:27 49.01912 2.56064 359 ft 11 kts 265°
2026-05-07 11:27 49.01905 2.55948 359 ft 11 kts 265°
2026-05-07 11:27 49.01899 2.55831 362 ft 11 kts 265°
2026-05-07 11:27 49.01893 2.55715 364 ft 11 kts 266°
2026-05-07 11:28 49.01888 2.55599 367 ft 11 kts 266°
2026-05-07 11:28 49.01883 2.55482 364 ft 11 kts 266°
2026-05-07 11:28 49.01877 2.55366 365 ft 11 kts 265°
2026-05-07 11:28 49.01869 2.55250 362 ft 11 kts 264°
2026-05-07 11:29 49.01862 2.55133 365 ft 11 kts 265°
2026-05-07 11:29 49.01857 2.55017 359 ft 11 kts 267°
2026-05-07 11:29 49.01854 2.54900 359 ft 11 kts 268°
2026-05-07 11:29 49.01847 2.54784 361 ft 11 kts 262°
2026-05-07 11:30 49.01836 2.54669 359 ft 11 kts 263°
2026-05-07 11:30 49.01830 2.54553 366 ft 11 kts 266°
2026-05-07 11:30 49.01825 2.54436 360 ft 11 kts 266°
2026-05-07 11:30 49.01820 2.54320 365 ft 11 kts 266°
2026-05-07 11:31 49.01816 2.54203 366 ft 11 kts 266°
2026-05-07 11:31 49.01810 2.54087 364 ft 11 kts 264°
2026-05-07 11:31 49.01802 2.53972 366 ft 11 kts 264°
2026-05-07 11:31 49.01795 2.53856 364 ft 11 kts 264°
2026-05-07 11:32 49.01781 2.53624 359 ft 11 kts 265°
2026-05-07 11:32 49.01774 2.53507 365 ft 11 kts 265°
2026-05-07 11:32 49.01768 2.53391 360 ft 11 kts 265°
2026-05-07 11:33 49.01761 2.53275 360 ft 11 kts 265°
2026-05-07 11:33 49.01754 2.53153 365 ft 12 kts 265°
2026-05-07 11:33 49.01748 2.53030 364 ft 12 kts 265°
2026-05-07 11:33 49.01741 2.52908 365 ft 12 kts 265°
2026-05-07 11:34 49.01734 2.52785 362 ft 12 kts 265°
2026-05-07 11:34 49.01729 2.52663 366 ft 12 kts 266°
2026-05-07 11:34 49.01725 2.52540 360 ft 12 kts 268°
2026-05-07 11:34 49.01719 2.52418 366 ft 12 kts 264°
2026-05-07 11:35 49.01709 2.52296 365 ft 12 kts 264°
2026-05-07 11:35 49.01702 2.52173 366 ft 12 kts 265°
2026-05-07 11:35 49.01696 2.52051 360 ft 12 kts 265°
2026-05-07 11:35 49.01689 2.51928 362 ft 12 kts 265°
2026-05-07 11:36 49.01683 2.51808 360 ft 12 kts 265°
2026-05-07 11:36 49.01676 2.51683 364 ft 12 kts 265°
2026-05-07 11:36 49.01670 2.51552 363 ft 12 kts 265°
2026-05-07 11:36 49.01663 2.51422 359 ft 12 kts 266°
2026-05-07 11:37 49.01664 2.51315 360 ft 7 kts 292°
2026-05-07 11:37 49.01703 2.51277 365 ft 7 kts 347°
2026-05-07 11:37 49.01752 2.51270 359 ft 7 kts 355°
2026-05-07 11:37 49.01802 2.51264 359 ft 7 kts 354°
2026-05-07 11:38 49.01857 2.51255 366 ft 10 kts 355°
2026-05-07 11:38 49.01948 2.51255 364 ft 14 kts 11°
2026-05-07 11:38 49.02028 2.51328 366 ft 12 kts 39°
2026-05-07 11:38 49.02065 2.51404 366 ft 9 kts 74°
2026-05-07 11:39 49.02069 2.51446 361 ft 0 kts 83°
2026-05-07 11:40 49.02084 2.51690 360 ft 55 kts 85°
2026-05-07 11:40 49.02132 2.52588 367 ft 114 kts 85°
2026-05-07 11:40 49.02211 2.54057 358 ft 162 kts 85°
2026-05-07 11:41 49.02315 2.55933 462 ft 186 kts 85°
2026-05-07 11:41 49.02397 2.57912 844 ft 185 kts 85°
2026-05-07 11:41 49.02492 2.59911 1214 ft 194 kts 83°
2026-05-07 11:41 49.02618 2.61972 1655 ft 196 kts 84°
2026-05-07 11:42 49.02754 2.64000 2101 ft 197 kts 83°
2026-05-07 11:42 49.02899 2.66165 2218 ft 213 kts 84°
2026-05-07 11:42 49.03011 2.68510 2407 ft 230 kts 85°
2026-05-07 11:42 49.03130 2.71018 2744 ft 242 kts 85°
2026-05-07 11:43 49.03250 2.73626 3170 ft 252 kts 85°
2026-05-07 11:43 49.03376 2.76327 3669 ft 259 kts 85°
2026-05-07 11:43 49.03506 2.79089 4292 ft 262 kts 86°
2026-05-07 11:43 49.03639 2.81869 4925 ft 264 kts 86°
2026-05-07 11:44 49.03770 2.84674 5534 ft 267 kts 86°
2026-05-07 11:44 49.03900 2.87508 6157 ft 270 kts 87°
2026-05-07 11:44 49.04035 2.90380 6744 ft 273 kts 87°
2026-05-07 11:44 49.04126 2.92303 7111 ft 275 kts 87°
2026-05-07 11:45 49.04110 2.95211 7585 ft 277 kts 100°
2026-05-07 11:45 49.03695 2.98099 8104 ft 281 kts 106°
2026-05-07 11:45 49.03171 3.00983 8641 ft 284 kts 107°
2026-05-07 11:45 49.02631 3.03890 9203 ft 286 kts 107°
2026-05-07 11:46 49.02095 3.06828 9744 ft 289 kts 106°
2026-05-07 11:46 49.01562 3.09813 10168 ft 295 kts 106°
2026-05-07 11:46 49.01017 3.12909 10371 ft 312 kts 106°
2026-05-07 11:46 49.00447 3.16193 10524 ft 330 kts 105°
2026-05-07 11:47 48.99848 3.19680 10692 ft 350 kts 105°
2026-05-07 11:47 48.99218 3.23366 10875 ft 368 kts 105°
2026-05-07 11:47 48.98565 3.27193 11320 ft 378 kts 105°
2026-05-07 11:47 48.97897 3.31112 11906 ft 385 kts 105°
2026-05-07 11:48 48.97229 3.35025 12659 ft 389 kts 105°
2026-05-07 11:48 48.96544 3.39030 13439 ft 393 kts 105°
2026-05-07 11:48 48.95851 3.43072 14135 ft 397 kts 105°
2026-05-07 11:48 48.95147 3.47170 14796 ft 402 kts 105°
2026-05-07 11:49 48.94435 3.51300 15473 ft 405 kts 105°
2026-05-07 11:49 48.93733 3.55464 16182 ft 407 kts 102°
2026-05-07 11:49 48.93302 3.59742 16788 ft 413 kts 96°
2026-05-07 11:49 48.93087 3.64128 17431 ft 417 kts 94°
2026-05-07 11:50 48.92929 3.68557 18106 ft 421 kts 93°
2026-05-07 11:50 48.92767 3.73028 18708 ft 425 kts 94°
2026-05-07 11:50 48.92578 3.77525 19286 ft 429 kts 94°
2026-05-07 11:50 48.92361 3.82062 19871 ft 432 kts 95°
2026-05-07 11:51 48.92122 3.86629 20448 ft 435 kts 95°
2026-05-07 11:51 48.91871 3.91226 21014 ft 439 kts 95°
2026-05-07 11:51 48.91612 3.95871 21570 ft 442 kts 95°
2026-05-07 11:51 48.91350 4.00546 22134 ft 446 kts 95°
2026-05-07 11:52 48.91084 4.05264 22684 ft 450 kts 96°
2026-05-07 11:52 48.90820 4.09955 23221 ft 453 kts 96°
2026-05-07 11:52 48.90548 4.14745 23715 ft 457 kts 96°
2026-05-07 11:52 48.90270 4.19565 24142 ft 458 kts 97°
2026-05-07 11:53 48.89651 4.24309 24464 ft 460 kts 112°
2026-05-07 11:53 48.88188 4.28602 24787 ft 459 kts 122°
2026-05-07 11:53 48.86542 4.32792 25131 ft 463 kts 122°
2026-05-07 11:53 48.84912 4.37031 25555 ft 466 kts 121°
2026-05-07 11:54 48.83299 4.41306 25993 ft 468 kts 121°
2026-05-07 11:54 48.81693 4.45617 26408 ft 470 kts 120°
2026-05-07 11:54 48.80090 4.49957 26797 ft 473 kts 120°
2026-05-07 11:54 48.78481 4.54329 27173 ft 476 kts 120°
2026-05-07 11:55 48.76865 4.58719 27545 ft 479 kts 120°
2026-05-07 11:55 48.75237 4.63135 27915 ft 481 kts 120°
2026-05-07 11:55 48.73596 4.67576 28276 ft 484 kts 120°
2026-05-07 11:55 48.71947 4.72026 28619 ft 486 kts 120°
2026-05-07 11:56 48.70286 4.76501 28944 ft 488 kts 120°
2026-05-07 11:56 48.68615 4.80994 29237 ft 491 kts 120°
2026-05-07 11:56 48.66934 4.85505 29547 ft 493 kts 120°
2026-05-07 11:56 48.65247 4.90023 29837 ft 495 kts 120°
2026-05-07 11:57 48.63551 4.94559 30136 ft 496 kts 120°
2026-05-07 11:57 48.61872 4.99044 30456 ft 496 kts 120°
2026-05-07 11:57 48.60173 5.03570 30791 ft 495 kts 120°
2026-05-07 11:57 48.58475 5.08088 31008 ft 497 kts 120°
2026-05-07 11:58 48.56761 5.12642 31029 ft 499 kts 120°
2026-05-07 11:58 48.53336 5.21716 31055 ft 495 kts 120°
2026-05-07 11:59 48.49928 5.30714 31054 ft 494 kts 120°
2026-05-07 11:59 48.46512 5.39702 31051 ft 495 kts 120°
2026-05-07 12:00 48.43086 5.48689 31060 ft 495 kts 120°
2026-05-07 12:00 48.39645 5.57681 31061 ft 496 kts 120°
2026-05-07 12:01 48.36199 5.66665 31062 ft 496 kts 120°
2026-05-07 12:01 48.32764 5.75642 31043 ft 492 kts 117°
2026-05-07 12:01 48.31591 5.80461 31050 ft 491 kts 100°
2026-05-07 12:02 48.31363 5.85547 31042 ft 489 kts 83°
2026-05-07 12:02 48.32293 5.95655 31054 ft 492 kts 82°
2026-05-07 12:03 48.33059 6.05925 31060 ft 496 kts 83°
2026-05-07 12:03 48.33756 6.16231 31048 ft 496 kts 84°
2026-05-07 12:04 48.34445 6.26469 31051 ft 495 kts 84°
2026-05-07 12:04 48.35138 6.36756 31046 ft 494 kts 84°
2026-05-07 12:05 48.35825 6.47029 31047 ft 494 kts 84°
2026-05-07 12:05 48.36504 6.57307 31053 ft 494 kts 84°
2026-05-07 12:06 48.37173 6.67600 31052 ft 495 kts 84°
2026-05-07 12:06 48.37833 6.77902 31054 ft 495 kts 84°
2026-05-07 12:07 48.38485 6.88232 31052 ft 496 kts 84°
2026-05-07 12:07 48.39129 6.98576 31056 ft 497 kts 84°
2026-05-07 12:08 48.39766 7.08952 31050 ft 498 kts 84°
2026-05-07 12:08 48.40394 7.19343 31051 ft 499 kts 85°
2026-05-07 12:09 48.41013 7.29750 31043 ft 499 kts 85°
2026-05-07 12:09 48.41622 7.40138 31056 ft 498 kts 85°
2026-05-07 12:10 48.42221 7.50523 31046 ft 498 kts 85°
2026-05-07 12:10 48.42811 7.60899 31053 ft 497 kts 85°
2026-05-07 12:11 48.43323 7.71271 31038 ft 497 kts 89°
2026-05-07 12:11 48.42810 7.81620 31048 ft 495 kts 99°
2026-05-07 12:12 48.41750 7.91783 31048 ft 495 kts 99°
2026-05-07 12:12 48.40701 8.02018 31059 ft 495 kts 99°
2026-05-07 12:13 48.39673 8.12279 31046 ft 496 kts 99°
2026-05-07 12:13 48.38646 8.22543 31046 ft 496 kts 99°
2026-05-07 12:14 48.37609 8.32814 31033 ft 496 kts 99°
2026-05-07 12:14 48.36563 8.43060 31032 ft 496 kts 99°
2026-05-07 12:15 48.35507 8.53304 31036 ft 495 kts 99°
2026-05-07 12:15 48.34442 8.63537 31031 ft 495 kts 99°
2026-05-07 12:16 48.33368 8.73766 31028 ft 495 kts 99°
2026-05-07 12:16 48.32287 8.83977 31026 ft 495 kts 99°
2026-05-07 12:17 48.31196 8.94199 31026 ft 496 kts 99°
2026-05-07 12:17 48.30093 9.04431 31030 ft 496 kts 99°
2026-05-07 12:18 48.28983 9.14645 31019 ft 496 kts 99°
2026-05-07 12:18 48.27864 9.24858 31016 ft 496 kts 99°
2026-05-07 12:19 48.26744 9.34992 31014 ft 495 kts 99°
2026-05-07 12:19 48.25610 9.45184 31019 ft 495 kts 99°
2026-05-07 12:20 48.24459 9.55444 31024 ft 495 kts 99°
2026-05-07 12:20 48.23321 9.65547 31021 ft 495 kts 99°
2026-05-07 12:21 48.22166 9.75727 31021 ft 495 kts 99°
2026-05-07 12:21 48.21003 9.85890 31023 ft 495 kts 99°
2026-05-07 12:22 48.19831 9.96052 31022 ft 495 kts 99°
2026-05-07 12:22 48.18646 10.06234 31025 ft 496 kts 99°
2026-05-07 12:23 48.17452 10.16423 31018 ft 497 kts 99°
2026-05-07 12:23 48.16246 10.26626 31020 ft 497 kts 99°
2026-05-07 12:24 48.15033 10.36810 31009 ft 497 kts 99°
2026-05-07 12:24 48.13808 10.47004 31017 ft 498 kts 100°
2026-05-07 12:25 48.12575 10.57192 31023 ft 498 kts 100°
2026-05-07 12:25 48.11327 10.67404 31021 ft 498 kts 100°
2026-05-07 12:26 48.10065 10.77594 31019 ft 499 kts 101°
2026-05-07 12:26 48.08798 10.87808 31022 ft 499 kts 101°
2026-05-07 12:27 48.07525 10.98028 31023 ft 500 kts 101°
2026-05-07 12:27 48.06240 11.08255 31017 ft 500 kts 101°
2026-05-07 12:28 48.04946 11.18480 31012 ft 501 kts 102°
2026-05-07 12:28 48.03640 11.28710 31024 ft 501 kts 102°
2026-05-07 12:29 48.02325 11.38929 31025 ft 501 kts 102°
2026-05-07 12:29 48.00988 11.49158 31015 ft 501 kts 102°
2026-05-07 12:30 47.99655 11.59369 31008 ft 501 kts 103°
2026-05-07 12:30 47.98314 11.69584 31013 ft 501 kts 103°
2026-05-07 12:31 47.96963 11.79797 31015 ft 502 kts 103°
2026-05-07 12:31 47.95601 11.90010 31007 ft 502 kts 103°
2026-05-07 12:32 47.94223 12.00220 30997 ft 502 kts 104°
2026-05-07 12:32 47.92847 12.10363 31010 ft 503 kts 104°
2026-05-07 12:33 47.90766 12.25648 31009 ft 504 kts 104°
2026-05-07 12:33 47.89358 12.35900 31009 ft 505 kts 105°
2026-05-07 12:34 47.88180 12.44413 31009 ft 505 kts 105°
2026-05-07 12:34 47.86755 12.54654 31012 ft 505 kts 105°
2026-05-07 12:35 47.85326 12.64891 31011 ft 504 kts 105°
2026-05-07 12:35 47.83883 12.75115 31008 ft 504 kts 105°
2026-05-07 12:36 47.82168 12.85206 31003 ft 502 kts 110°
2026-05-07 12:36 47.80266 12.95192 31021 ft 501 kts 110°
2026-05-07 12:37 47.78395 13.05187 31020 ft 502 kts 109°
2026-05-07 12:37 47.76561 13.15204 31015 ft 503 kts 109°
2026-05-07 12:38 47.74731 13.25223 30998 ft 502 kts 110°
2026-05-07 12:38 47.72902 13.35156 31009 ft 502 kts 110°
2026-05-07 12:39 47.71052 13.45138 30997 ft 501 kts 110°
2026-05-07 12:39 47.69197 13.55103 30995 ft 501 kts 111°
2026-05-07 12:40 47.67331 13.65066 30992 ft 501 kts 111°
2026-05-07 12:40 47.65457 13.75028 30984 ft 501 kts 111°
2026-05-07 12:41 47.63574 13.84979 30992 ft 502 kts 112°
2026-05-07 12:41 47.61685 13.94946 30991 ft 502 kts 112°
2026-05-07 12:42 47.59726 14.04856 30989 ft 498 kts 116°
2026-05-07 12:42 47.57229 14.14384 30986 ft 495 kts 119°
2026-05-07 12:43 47.54657 14.23874 30946 ft 496 kts 118°
2026-05-07 12:43 47.52125 14.33306 30922 ft 497 kts 118°
2026-05-07 12:44 47.49590 14.42805 30961 ft 496 kts 118°
2026-05-07 12:44 47.47054 14.52293 30944 ft 496 kts 118°
2026-05-07 12:45 47.44503 14.61796 30959 ft 498 kts 118°
2026-05-07 12:45 47.41946 14.71289 30873 ft 497 kts 119°
2026-05-07 12:46 47.39388 14.80733 30923 ft 494 kts 119°
2026-05-07 12:46 47.36821 14.90158 30908 ft 495 kts 119°
2026-05-07 12:47 47.34259 14.99530 30929 ft 496 kts 119°
2026-05-07 12:47 47.31674 15.08978 30899 ft 497 kts 120°
2026-05-07 12:48 47.29078 15.18425 30928 ft 496 kts 120°
2026-05-07 12:48 47.26487 15.27813 30937 ft 498 kts 120°
2026-05-07 12:49 47.23861 15.37257 30933 ft 498 kts 120°
2026-05-07 12:49 47.21240 15.46677 30879 ft 496 kts 120°
2026-05-07 12:50 47.18642 15.55981 30931 ft 492 kts 120°
2026-05-07 12:50 47.16019 15.65325 30936 ft 492 kts 120°
2026-05-07 12:51 47.13393 15.74645 30951 ft 494 kts 120°
2026-05-07 12:51 47.10767 15.83935 30914 ft 496 kts 120°
2026-05-07 12:52 47.08104 15.93321 30946 ft 498 kts 120°
2026-05-07 12:52 47.05428 16.02698 30996 ft 499 kts 120°
2026-05-07 12:53 47.04101 16.07342 31247 ft 500 kts 120°
2026-05-07 12:53 47.02769 16.12034 31605 ft 498 kts 120°
2026-05-07 12:53 47.01436 16.16708 31998 ft 495 kts 120°
2026-05-07 12:53 47.00129 16.21370 32372 ft 495 kts 118°
2026-05-07 12:54 46.99060 16.26187 32665 ft 501 kts 111°
2026-05-07 12:54 46.98235 16.31152 32917 ft 502 kts 110°
2026-05-07 12:54 46.96628 16.41137 32975 ft 503 kts 110°
2026-05-07 12:55 46.95014 16.51069 32975 ft 500 kts 111°
2026-05-07 12:55 46.93387 16.60875 32949 ft 498 kts 111°
2026-05-07 12:56 46.91734 16.70697 32977 ft 497 kts 111°
2026-05-07 12:56 46.90058 16.80585 32990 ft 498 kts 111°
2026-05-07 12:57 46.88393 16.90366 32988 ft 499 kts 112°
2026-05-07 12:57 46.86709 17.00214 32967 ft 500 kts 111°
2026-05-07 12:58 46.85014 17.10073 33017 ft 501 kts 111°
2026-05-07 12:58 46.83296 17.20002 33007 ft 505 kts 111°
2026-05-07 12:59 46.81570 17.29939 32984 ft 504 kts 111°
2026-05-07 12:59 46.79843 17.39823 32975 ft 501 kts 111°
2026-05-07 13:00 46.78111 17.49668 32993 ft 501 kts 111°
2026-05-07 13:00 46.76371 17.59503 33007 ft 501 kts 111°
2026-05-07 13:01 46.74621 17.69344 33014 ft 502 kts 111°
2026-05-07 13:01 46.72858 17.79199 33012 ft 502 kts 111°
2026-05-07 13:02 46.71086 17.89066 33007 ft 503 kts 111°
2026-05-07 13:02 46.69303 17.98933 33010 ft 504 kts 111°
2026-05-07 13:03 46.67510 18.08810 32989 ft 504 kts 111°
2026-05-07 13:03 46.65745 18.18692 33000 ft 503 kts 110°
2026-05-07 13:04 46.63958 18.28468 33004 ft 503 kts 110°
2026-05-07 13:04 46.62135 18.38294 33009 ft 503 kts 111°
2026-05-07 13:05 46.60303 18.48125 33006 ft 503 kts 111°
2026-05-07 13:05 46.58470 18.57944 32995 ft 502 kts 110°
2026-05-07 13:06 46.56633 18.67743 33003 ft 502 kts 110°
2026-05-07 13:06 46.54788 18.77524 33010 ft 502 kts 111°
2026-05-07 13:07 46.52935 18.87298 32999 ft 502 kts 111°
2026-05-07 13:07 46.51076 18.97060 33006 ft 502 kts 110°
2026-05-07 13:08 46.49207 19.06816 33008 ft 502 kts 110°
2026-05-07 13:08 46.47326 19.16588 33004 ft 503 kts 110°
2026-05-07 13:09 46.45447 19.26297 32977 ft 503 kts 110°
2026-05-07 13:09 46.43548 19.36062 32998 ft 503 kts 110°
2026-05-07 13:10 46.41640 19.45828 33000 ft 503 kts 110°
2026-05-07 13:10 46.39720 19.55605 33001 ft 503 kts 110°
2026-05-07 13:11 46.37796 19.65352 32979 ft 503 kts 111°
2026-05-07 13:11 46.35869 19.75067 32991 ft 501 kts 111°
2026-05-07 13:12 46.33936 19.84758 32996 ft 500 kts 111°
2026-05-07 13:12 46.32012 19.94361 32999 ft 499 kts 111°
2026-05-07 13:13 46.30070 20.04004 32999 ft 499 kts 111°
2026-05-07 13:13 46.28123 20.13627 33005 ft 499 kts 111°
2026-05-07 13:14 46.26166 20.23248 33006 ft 499 kts 111°
2026-05-07 13:14 46.24202 20.32863 33004 ft 499 kts 111°
2026-05-07 13:15 46.22228 20.42482 33002 ft 499 kts 111°
2026-05-07 13:15 46.20247 20.52085 33013 ft 500 kts 111°
2026-05-07 13:16 46.18256 20.61700 33011 ft 500 kts 111°
2026-05-07 13:16 46.16240 20.71301 33013 ft 499 kts 113°
2026-05-07 13:17 46.13809 20.80626 33028 ft 496 kts 115°
2026-05-07 13:17 46.11290 20.89906 33029 ft 497 kts 115°
2026-05-07 13:18 46.08776 20.99186 33038 ft 497 kts 115°
2026-05-07 13:18 46.06271 21.08469 33040 ft 497 kts 115°
2026-05-07 13:19 46.03762 21.17760 33039 ft 498 kts 115°
2026-05-07 13:19 46.01242 21.27054 33043 ft 499 kts 115°
2026-05-07 13:20 45.98727 21.36291 33040 ft 500 kts 115°
2026-05-07 13:20 45.96183 21.45597 33027 ft 500 kts 115°
2026-05-07 13:21 45.93631 21.54890 33038 ft 500 kts 115°
2026-05-07 13:21 45.91067 21.64200 33023 ft 501 kts 115°
2026-05-07 13:22 45.88912 21.71992 33027 ft 501 kts 115°
2026-05-07 13:22 45.86352 21.81219 33010 ft 501 kts 116°
2026-05-07 13:23 45.83767 21.90497 33024 ft 500 kts 116°
2026-05-07 13:23 45.81176 21.99756 33024 ft 500 kts 116°
2026-05-07 13:24 45.78578 22.09004 33026 ft 500 kts 116°
2026-05-07 13:24 45.75975 22.18244 33032 ft 500 kts 116°
2026-05-07 13:25 45.73360 22.27487 33040 ft 501 kts 116°
2026-05-07 13:25 45.70731 22.36745 33019 ft 503 kts 116°
2026-05-07 13:26 45.68093 22.46005 33038 ft 503 kts 116°
2026-05-07 13:26 45.65442 22.55270 33028 ft 504 kts 116°
2026-05-07 13:27 45.62775 22.64559 33034 ft 506 kts 116°
2026-05-07 13:27 45.60094 22.73858 33034 ft 507 kts 117°
2026-05-07 13:28 45.57402 22.83163 33020 ft 508 kts 116°
2026-05-07 13:28 45.54696 22.92480 33031 ft 508 kts 116°
2026-05-07 13:29 45.51979 23.01799 33039 ft 510 kts 116°
2026-05-07 13:29 45.49250 23.11127 33046 ft 510 kts 117°
2026-05-07 13:30 45.46512 23.20448 33045 ft 510 kts 116°
2026-05-07 13:30 45.43783 23.29708 33051 ft 510 kts 116°
2026-05-07 13:31 45.41027 23.39023 33058 ft 510 kts 117°
2026-05-07 13:31 45.38266 23.48319 33061 ft 510 kts 117°
2026-05-07 13:32 45.35496 23.57615 33048 ft 510 kts 117°
2026-05-07 13:32 45.32724 23.66874 33064 ft 509 kts 117°
2026-05-07 13:33 45.29945 23.76130 33042 ft 508 kts 117°
2026-05-07 13:33 45.27165 23.85347 33043 ft 508 kts 116°
2026-05-07 13:34 45.22975 23.99190 33036 ft 509 kts 116°
2026-05-07 13:35 45.20161 24.08435 33057 ft 510 kts 116°
2026-05-07 13:35 45.17357 24.17622 33041 ft 512 kts 116°
2026-05-07 13:36 45.14514 24.26903 33031 ft 513 kts 116°
2026-05-07 13:36 45.11664 24.36173 33034 ft 514 kts 116°
2026-05-07 13:37 45.08801 24.45451 33037 ft 514 kts 116°
2026-05-07 13:37 45.05930 24.54721 33024 ft 514 kts 116°
2026-05-07 13:38 45.03055 24.63967 33031 ft 514 kts 116°
2026-05-07 13:38 45.00187 24.73160 33030 ft 514 kts 116°
2026-05-07 13:39 44.97293 24.82403 33034 ft 514 kts 116°
2026-05-07 13:39 44.94387 24.91652 33029 ft 514 kts 116°
2026-05-07 13:40 44.91493 25.00832 33033 ft 514 kts 116°
2026-05-07 13:40 44.88579 25.10039 33027 ft 514 kts 116°
2026-05-07 13:41 44.85657 25.19240 33015 ft 514 kts 116°
2026-05-07 13:41 44.82726 25.28434 33037 ft 514 kts 116°
2026-05-07 13:42 44.79787 25.37624 33029 ft 515 kts 116°
2026-05-07 13:42 44.76835 25.46822 33031 ft 515 kts 115°
2026-05-07 13:43 44.73876 25.56006 33028 ft 516 kts 115°
2026-05-07 13:43 44.70905 25.65200 33033 ft 516 kts 115°
2026-05-07 13:44 44.67948 25.74316 33035 ft 516 kts 115°
2026-05-07 13:44 44.64965 25.83481 33042 ft 516 kts 115°
2026-05-07 13:45 44.61977 25.92630 33046 ft 516 kts 115°
2026-05-07 13:45 44.58980 26.01774 33050 ft 515 kts 115°
2026-05-07 13:46 44.55980 26.10894 33050 ft 515 kts 115°
2026-05-07 13:46 44.52976 26.19994 33022 ft 515 kts 115°
2026-05-07 13:47 44.49962 26.29096 33030 ft 514 kts 115°
2026-05-07 13:47 44.46946 26.38173 33016 ft 514 kts 115°
2026-05-07 13:48 44.43923 26.47240 33028 ft 514 kts 115°
2026-05-07 13:48 44.40888 26.56311 33034 ft 515 kts 115°
2026-05-07 13:49 44.37843 26.65382 33024 ft 516 kts 115°
2026-05-07 13:49 44.34786 26.74461 33034 ft 516 kts 115°
2026-05-07 13:50 44.31718 26.83532 33037 ft 517 kts 115°
2026-05-07 13:50 44.28641 26.92607 33035 ft 517 kts 115°
2026-05-07 13:51 44.25555 27.01674 33035 ft 517 kts 115°
2026-05-07 13:51 44.22481 27.10676 33035 ft 518 kts 115°
2026-05-07 13:52 44.19379 27.19733 33041 ft 518 kts 115°
2026-05-07 13:52 44.16265 27.28791 33053 ft 518 kts 115°
2026-05-07 13:53 44.13146 27.37836 33049 ft 519 kts 115°
2026-05-07 13:53 44.10012 27.46892 33062 ft 519 kts 115°
2026-05-07 13:54 44.06902 27.55849 33046 ft 520 kts 115°
2026-05-07 13:54 44.03716 27.64995 33064 ft 520 kts 115°
2026-05-07 13:55 44.00551 27.74050 33078 ft 521 kts 115°
2026-05-07 13:55 43.97373 27.83115 33073 ft 522 kts 115°
2026-05-07 13:56 43.94188 27.92166 33081 ft 522 kts 115°
2026-05-07 13:56 43.90991 28.01222 33081 ft 523 kts 115°
2026-05-07 13:57 43.87784 28.10279 33095 ft 524 kts 115°
2026-05-07 13:57 43.84566 28.19336 33100 ft 524 kts 115°
2026-05-07 13:58 43.81340 28.28385 33114 ft 524 kts 115°
2026-05-07 13:58 43.78104 28.37436 33107 ft 525 kts 115°
2026-05-07 13:59 43.74885 28.46413 33111 ft 525 kts 115°
2026-05-07 13:59 43.71321 28.55221 33118 ft 525 kts 121°
2026-05-07 14:00 43.67360 28.63696 33130 ft 526 kts 122°
2026-05-07 14:00 43.63386 28.72176 33134 ft 526 kts 121°
2026-05-07 14:01 43.59435 28.80674 33120 ft 526 kts 121°
2026-05-07 14:01 43.55489 28.89176 33139 ft 527 kts 121°
2026-05-07 14:02 43.51533 28.97677 33140 ft 527 kts 121°
2026-05-07 14:02 43.47562 29.06182 33139 ft 528 kts 121°
2026-05-07 14:03 43.43585 29.14668 33147 ft 528 kts 121°
2026-05-07 14:03 43.39599 29.23152 33139 ft 528 kts 121°
2026-05-07 14:04 43.35606 29.31625 33138 ft 528 kts 121°
2026-05-07 14:04 43.31613 29.40075 33155 ft 527 kts 121°
2026-05-07 14:05 43.27613 29.48513 33140 ft 527 kts 121°
2026-05-07 14:05 43.23611 29.56933 33138 ft 526 kts 121°
2026-05-07 14:06 43.19638 29.65268 33141 ft 526 kts 121°
2026-05-07 14:06 43.15633 29.73647 33141 ft 525 kts 121°
2026-05-07 14:07 43.11625 29.82009 33141 ft 525 kts 121°
2026-05-07 14:07 43.07609 29.90363 33144 ft 526 kts 121°
2026-05-07 14:08 43.03580 29.98720 33144 ft 527 kts 121°
2026-05-07 14:08 42.99539 30.07081 33139 ft 527 kts 121°
2026-05-07 14:09 42.95493 30.15426 33142 ft 527 kts 121°
2026-05-07 14:09 42.91441 30.23762 33147 ft 526 kts 121°
2026-05-07 14:10 42.87396 30.32059 33137 ft 524 kts 122°
2026-05-07 14:10 42.83357 30.40323 33136 ft 523 kts 122°
2026-05-07 14:11 42.80012 30.47155 33152 ft 521 kts 122°
2026-05-07 14:11 42.76089 30.55413 33131 ft 517 kts 115°
2026-05-07 14:12 42.73496 30.64435 33134 ft 510 kts 102°
2026-05-07 14:12 42.72312 30.73867 33168 ft 505 kts 94°
2026-05-07 14:13 42.71420 30.83342 33146 ft 505 kts 94°
2026-05-07 14:13 42.70495 30.92767 33133 ft 506 kts 94°
2026-05-07 14:14 42.69521 31.02254 33150 ft 506 kts 95°
2026-05-07 14:14 42.68529 31.11735 33154 ft 506 kts 94°
2026-05-07 14:15 42.67530 31.21221 33137 ft 507 kts 94°
2026-05-07 14:15 42.66531 31.30649 33144 ft 507 kts 94°
2026-05-07 14:16 42.65517 31.40140 33153 ft 507 kts 94°
2026-05-07 14:16 42.64497 31.49620 33155 ft 508 kts 94°
2026-05-07 14:17 42.63467 31.59111 33142 ft 508 kts 94°
2026-05-07 14:17 42.62430 31.68592 33136 ft 507 kts 94°
2026-05-07 14:18 42.61387 31.78061 33144 ft 507 kts 94°
2026-05-07 14:18 42.60338 31.87525 33147 ft 507 kts 94°
2026-05-07 14:19 42.59284 31.96976 33135 ft 507 kts 94°
2026-05-07 14:19 42.58229 32.06423 33139 ft 506 kts 94°
2026-05-07 14:20 42.57160 32.15858 33144 ft 506 kts 94°
2026-05-07 14:20 42.56070 32.25289 33151 ft 506 kts 95°
2026-05-07 14:21 42.54977 32.34710 33140 ft 506 kts 95°
2026-05-07 14:21 42.53881 32.44123 33157 ft 505 kts 95°
2026-05-07 14:22 42.52788 32.53462 33145 ft 504 kts 95°
2026-05-07 14:22 42.51682 32.62840 33147 ft 503 kts 95°
2026-05-07 14:23 42.50569 32.72197 33141 ft 503 kts 95°
2026-05-07 14:23 42.49451 32.81535 33150 ft 502 kts 95°
2026-05-07 14:24 42.48326 32.90869 33147 ft 502 kts 96°
2026-05-07 14:24 42.47195 33.00201 33143 ft 502 kts 96°
2026-05-07 14:25 42.46057 33.09533 33141 ft 502 kts 96°
2026-05-07 14:25 42.44904 33.18874 33148 ft 503 kts 96°
2026-05-07 14:26 42.43740 33.28213 33163 ft 503 kts 96°
2026-05-07 14:26 42.42572 33.37579 33148 ft 504 kts 96°
2026-05-07 14:27 42.41392 33.46934 33163 ft 504 kts 97°
2026-05-07 14:27 42.40210 33.56220 33146 ft 503 kts 97°
2026-05-07 14:28 42.39022 33.65531 33164 ft 502 kts 97°
2026-05-07 14:28 42.37831 33.74830 33149 ft 501 kts 97°
2026-05-07 14:29 42.36636 33.84106 33152 ft 500 kts 97°
2026-05-07 14:29 42.35432 33.93359 33156 ft 500 kts 97°
2026-05-07 14:30 42.34218 34.02617 33163 ft 500 kts 97°
2026-05-07 14:30 42.33004 34.11862 33166 ft 500 kts 97°
2026-05-07 14:31 42.31789 34.21067 33148 ft 501 kts 97°
2026-05-07 14:31 42.30559 34.30337 33144 ft 502 kts 97°
2026-05-07 14:32 42.29320 34.39611 33154 ft 502 kts 97°
2026-05-07 14:32 42.28063 34.48891 33160 ft 502 kts 97°
2026-05-07 14:33 42.26800 34.58172 33157 ft 502 kts 97°
2026-05-07 14:33 42.25535 34.67442 33158 ft 502 kts 97°
2026-05-07 14:34 42.24266 34.76702 33154 ft 502 kts 97°
2026-05-07 14:34 42.22981 34.85955 33150 ft 502 kts 97°
2026-05-07 14:35 42.21684 34.95199 33159 ft 501 kts 97°
2026-05-07 14:35 42.20383 35.04443 33154 ft 502 kts 97°
2026-05-07 14:36 42.19078 35.13688 33169 ft 502 kts 97°
2026-05-07 14:36 42.17766 35.22930 33160 ft 502 kts 97°
2026-05-07 14:37 42.16446 35.32179 33162 ft 502 kts 97°
2026-05-07 14:37 42.14458 35.45979 33173 ft 502 kts 97°
2026-05-07 14:38 42.13113 35.55209 33170 ft 501 kts 98°
2026-05-07 14:38 42.11773 35.64382 33162 ft 498 kts 98°
2026-05-07 14:39 42.10434 35.73519 33164 ft 496 kts 98°
2026-05-07 14:39 42.09095 35.82607 33170 ft 494 kts 99°
2026-05-07 14:40 42.07754 35.91657 33175 ft 492 kts 99°
2026-05-07 14:40 42.06409 36.00680 33167 ft 491 kts 99°
2026-05-07 14:41 42.05058 36.09688 33169 ft 491 kts 99°
2026-05-07 14:41 42.03700 36.18698 33171 ft 492 kts 99°
2026-05-07 14:42 42.02334 36.27708 33179 ft 492 kts 100°
2026-05-07 14:42 42.00960 36.36718 33170 ft 492 kts 100°
2026-05-07 14:43 41.99579 36.45727 33169 ft 492 kts 100°
2026-05-07 14:43 41.98191 36.54736 33173 ft 492 kts 100°
2026-05-07 14:44 41.96798 36.63725 33174 ft 491 kts 100°
2026-05-07 14:44 41.95400 36.72698 33172 ft 490 kts 100°
2026-05-07 14:45 41.93998 36.81653 33184 ft 490 kts 100°
2026-05-07 14:45 41.92599 36.90551 33172 ft 490 kts 100°
2026-05-07 14:46 41.91184 36.99499 33179 ft 490 kts 100°
2026-05-07 14:46 41.90227 37.08514 33170 ft 487 kts 90°
2026-05-07 14:47 41.90133 37.17586 33192 ft 486 kts 88°
2026-05-07 14:47 41.90042 37.26668 33184 ft 487 kts 89°
2026-05-07 14:48 41.89915 37.35756 33185 ft 487 kts 89°
2026-05-07 14:48 41.89767 37.44844 33176 ft 486 kts 89°
2026-05-07 14:49 41.89608 37.53907 33178 ft 486 kts 89°
2026-05-07 14:49 41.89444 37.62960 33191 ft 485 kts 89°
2026-05-07 14:50 41.89274 37.72017 33182 ft 485 kts 89°
2026-05-07 14:50 41.89098 37.81060 33179 ft 485 kts 89°
2026-05-07 14:51 41.88914 37.90098 33186 ft 484 kts 89°
2026-05-07 14:51 41.88723 37.99122 33180 ft 484 kts 89°
2026-05-07 14:52 41.88526 38.08141 33186 ft 483 kts 89°
2026-05-07 14:52 41.88321 38.17159 33181 ft 483 kts 90°
2026-05-07 14:53 41.88111 38.26110 33183 ft 483 kts 90°
2026-05-07 14:53 41.87891 38.35177 33182 ft 483 kts 90°
2026-05-07 14:54 41.87668 38.44127 33197 ft 483 kts 90°
2026-05-07 14:54 41.87435 38.53146 33185 ft 484 kts 90°
2026-05-07 14:55 41.87195 38.62174 33186 ft 484 kts 90°
2026-05-07 14:55 41.86948 38.71206 33185 ft 485 kts 90°
2026-05-07 14:56 41.86693 38.80246 33188 ft 485 kts 90°
2026-05-07 14:56 41.86432 38.89287 33198 ft 485 kts 90°
2026-05-07 14:57 41.86163 38.98335 33183 ft 486 kts 90°
2026-05-07 14:57 41.85887 39.07391 33192 ft 486 kts 90°
2026-05-07 14:58 41.85604 39.16435 33190 ft 485 kts 90°
2026-05-07 14:58 41.85315 39.25480 33189 ft 485 kts 91°
2026-05-07 14:59 41.85021 39.34459 33194 ft 485 kts 91°
2026-05-07 14:59 41.84720 39.43495 33195 ft 485 kts 91°
2026-05-07 15:00 41.84410 39.52534 33195 ft 485 kts 91°
2026-05-07 15:00 41.84087 39.61583 33197 ft 486 kts 91°
2026-05-07 15:01 41.83759 39.70631 33208 ft 486 kts 92°
2026-05-07 15:01 41.83427 39.79677 33198 ft 486 kts 92°
2026-05-07 15:02 41.83146 39.87195 33190 ft 486 kts 92°
2026-05-07 15:02 41.82802 39.96248 33194 ft 486 kts 92°
2026-05-07 15:03 41.82454 40.05297 33187 ft 486 kts 92°
2026-05-07 15:03 41.82095 40.14345 33185 ft 486 kts 92°
2026-05-07 15:04 41.81721 40.23403 33194 ft 487 kts 92°
2026-05-07 15:04 41.81342 40.32468 33191 ft 488 kts 92°
2026-05-07 15:05 41.80959 40.41549 33183 ft 488 kts 93°
2026-05-07 15:05 41.80570 40.50626 33186 ft 488 kts 93°
2026-05-07 15:06 41.80176 40.59709 33186 ft 488 kts 93°
2026-05-07 15:06 41.79768 40.68778 33191 ft 488 kts 93°
2026-05-07 15:07 41.79323 40.77839 33188 ft 487 kts 93°
2026-05-07 15:07 41.78866 40.86897 33183 ft 487 kts 93°
2026-05-07 15:08 41.78410 40.95941 33188 ft 486 kts 94°
2026-05-07 15:08 41.77948 41.04989 33190 ft 487 kts 94°
2026-05-07 15:09 41.77468 41.14062 33195 ft 489 kts 94°
2026-05-07 15:09 41.76989 41.23148 33202 ft 490 kts 94°
2026-05-07 15:10 41.76506 41.32262 33197 ft 490 kts 94°
2026-05-07 15:10 41.76016 41.41376 33181 ft 492 kts 95°
2026-05-07 15:11 41.75514 41.50527 33190 ft 493 kts 95°
2026-05-07 15:11 41.75008 41.59627 33192 ft 494 kts 95°
2026-05-07 15:12 41.74490 41.68800 33185 ft 494 kts 95°
2026-05-07 15:12 41.73964 41.77982 33195 ft 495 kts 95°
2026-05-07 15:13 41.73431 41.87178 33191 ft 496 kts 95°
2026-05-07 15:13 41.72889 41.96376 33192 ft 496 kts 95°
2026-05-07 15:14 41.72339 42.05597 33200 ft 497 kts 96°
2026-05-07 15:14 41.71783 42.14807 33197 ft 497 kts 96°
2026-05-07 15:15 41.71218 42.24028 33190 ft 498 kts 96°
2026-05-07 15:15 41.70645 42.33268 33187 ft 498 kts 96°
2026-05-07 15:16 41.70063 42.42521 33197 ft 499 kts 96°
2026-05-07 15:16 41.69475 42.51785 33191 ft 500 kts 96°
2026-05-07 15:17 41.68879 42.61056 33177 ft 500 kts 97°
2026-05-07 15:17 41.68276 42.70326 33183 ft 500 kts 97°
2026-05-07 15:18 41.67668 42.79602 33181 ft 501 kts 97°
2026-05-07 15:18 41.66960 42.88853 33184 ft 500 kts 100°
2026-05-07 15:19 41.65767 42.98014 33172 ft 499 kts 102°
2026-05-07 15:19 41.64476 43.07092 33174 ft 500 kts 103°
2026-05-07 15:20 41.63215 43.16232 33184 ft 500 kts 102°
2026-05-07 15:20 41.61981 43.25388 33187 ft 501 kts 102°
2026-05-07 15:21 41.60741 43.34613 33182 ft 502 kts 102°
2026-05-07 15:21 41.59508 43.43724 33184 ft 502 kts 103°
2026-05-07 15:22 41.58251 43.52929 33192 ft 504 kts 103°
2026-05-07 15:22 41.56985 43.62140 33192 ft 505 kts 103°
2026-05-07 15:23 41.55707 43.71380 33189 ft 506 kts 103°
2026-05-07 15:23 41.54420 43.80626 33182 ft 506 kts 103°
2026-05-07 15:24 41.53127 43.89860 33188 ft 506 kts 103°
2026-05-07 15:24 41.51827 43.99093 33184 ft 506 kts 103°
2026-05-07 15:25 41.50518 44.08325 33186 ft 507 kts 104°
2026-05-07 15:25 41.49199 44.17575 33180 ft 508 kts 104°
2026-05-07 15:26 41.47872 44.26831 33176 ft 509 kts 104°
2026-05-07 15:26 41.46540 44.36058 33170 ft 510 kts 104°
2026-05-07 15:27 41.45193 44.45347 33171 ft 511 kts 104°
2026-05-07 15:27 41.43838 44.54631 33153 ft 510 kts 104°
2026-05-07 15:28 41.42478 44.63902 33155 ft 509 kts 104°
2026-05-07 15:28 41.41112 44.73155 33154 ft 509 kts 104°
2026-05-07 15:29 41.39740 44.82398 33145 ft 508 kts 104°
2026-05-07 15:29 41.38361 44.91646 33137 ft 509 kts 105°
2026-05-07 15:30 41.36973 45.00918 33145 ft 512 kts 105°
2026-05-07 15:30 41.35450 45.10192 33148 ft 511 kts 111°
2026-05-07 15:31 41.33187 45.19068 33125 ft 510 kts 114°
2026-05-07 15:31 41.30824 45.27981 33126 ft 511 kts 114°
2026-05-07 15:32 41.28485 45.36932 33139 ft 513 kts 114°
2026-05-07 15:32 41.26160 45.45916 33119 ft 514 kts 114°
2026-05-07 15:33 41.23830 45.54917 33099 ft 515 kts 114°
2026-05-07 15:33 41.21489 45.63917 33108 ft 515 kts 114°
2026-05-07 15:34 41.19139 45.72908 33119 ft 515 kts 114°
2026-05-07 15:34 41.16795 45.81844 33078 ft 515 kts 115°
2026-05-07 15:35 41.14427 45.90836 33097 ft 514 kts 115°
2026-05-07 15:35 41.12056 45.99806 33104 ft 514 kts 115°
2026-05-07 15:36 41.09697 46.08699 33111 ft 514 kts 115°
2026-05-07 15:36 41.07328 46.17598 33105 ft 513 kts 115°
2026-05-07 15:37 41.04941 46.26532 33098 ft 514 kts 116°
2026-05-07 15:37 41.02542 46.35476 33102 ft 514 kts 115°
2026-05-07 15:38 41.00148 46.44373 33078 ft 515 kts 116°
2026-05-07 15:38 40.97738 46.53294 33084 ft 516 kts 116°
2026-05-07 15:39 40.95309 46.62257 33092 ft 517 kts 116°
2026-05-07 15:39 40.92870 46.71227 33090 ft 517 kts 116°
2026-05-07 15:40 40.90425 46.80182 33080 ft 518 kts 116°
2026-05-07 15:40 40.87966 46.89157 33083 ft 520 kts 116°
2026-05-07 15:41 40.85495 46.98144 33083 ft 521 kts 116°
2026-05-07 15:41 40.83011 47.07149 33056 ft 522 kts 117°
2026-05-07 15:42 40.80514 47.16167 33079 ft 523 kts 117°
2026-05-07 15:42 40.78006 47.25196 33060 ft 525 kts 117°
2026-05-07 15:43 40.75484 47.34243 33023 ft 526 kts 117°
2026-05-07 15:43 40.72965 47.43247 33066 ft 527 kts 117°
2026-05-07 15:44 40.70418 47.52321 33068 ft 528 kts 117°
2026-05-07 15:44 40.67844 47.61462 33075 ft 529 kts 117°
2026-05-07 15:45 40.65277 47.70548 33078 ft 529 kts 117°
2026-05-07 15:45 40.62709 47.79623 33075 ft 528 kts 117°
2026-05-07 15:46 40.59207 47.93400 33070 ft 536 kts 107°
2026-05-07 15:47 40.58409 48.03226 33064 ft 546 kts 94°
2026-05-07 15:47 40.58648 48.11529 33077 ft 547 kts 92°
2026-05-07 15:48 40.59003 48.21534 33088 ft 547 kts 92°
2026-05-07 15:48 40.59303 48.31543 33085 ft 547 kts 92°
2026-05-07 15:49 40.59557 48.41546 33090 ft 547 kts 93°
2026-05-07 15:49 40.59796 48.51556 33083 ft 547 kts 93°
2026-05-07 15:50 40.60030 48.61572 33099 ft 548 kts 93°
2026-05-07 15:50 40.60260 48.71607 33099 ft 549 kts 93°
2026-05-07 15:51 40.60481 48.81650 33102 ft 550 kts 93°
2026-05-07 15:51 40.60695 48.91714 33102 ft 550 kts 93°
2026-05-07 15:52 40.60892 49.01715 33069 ft 550 kts 94°
2026-05-07 15:52 40.61095 49.11775 33096 ft 550 kts 94°
2026-05-07 15:53 40.61339 49.21846 33090 ft 552 kts 91°
2026-05-07 15:53 40.61897 49.31937 33103 ft 553 kts 90°
2026-05-07 15:54 40.62508 49.42045 33093 ft 554 kts 90°
2026-05-07 15:54 40.63099 49.52163 33092 ft 554 kts 90°
2026-05-07 15:55 40.63664 49.62275 33089 ft 554 kts 91°
2026-05-07 15:55 40.64215 49.72392 33086 ft 554 kts 90°
2026-05-07 15:56 40.64759 49.82512 33091 ft 554 kts 90°
2026-05-07 15:56 40.65297 49.92642 33082 ft 555 kts 91°
2026-05-07 15:57 40.65826 50.02767 33081 ft 554 kts 91°
2026-05-07 15:57 40.66347 50.12894 33043 ft 554 kts 91°
2026-05-07 15:58 40.66860 50.23017 33078 ft 554 kts 91°
2026-05-07 15:58 40.67367 50.33144 33093 ft 554 kts 91°
2026-05-07 15:59 40.67866 50.43277 33092 ft 554 kts 91°
2026-05-07 15:59 40.68337 50.53414 33101 ft 555 kts 91°
2026-05-07 16:00 40.68794 50.63490 33100 ft 555 kts 91°
2026-05-07 16:00 40.69257 50.73632 33084 ft 555 kts 91°
2026-05-07 16:01 40.69714 50.83771 33101 ft 554 kts 91°
2026-05-07 16:01 40.70163 50.93918 33103 ft 555 kts 91°
2026-05-07 16:02 40.70603 51.04068 33109 ft 555 kts 91°
2026-05-07 16:02 40.71034 51.14225 33109 ft 555 kts 91°
2026-05-07 16:03 40.71459 51.24386 33108 ft 555 kts 91°
2026-05-07 16:03 40.71877 51.34546 33093 ft 555 kts 91°
2026-05-07 16:04 40.72286 51.44709 33113 ft 555 kts 91°
2026-05-07 16:04 40.73173 51.54872 33203 ft 563 kts 81°
2026-05-07 16:04 40.74019 51.59918 33547 ft 562 kts 80°
2026-05-07 16:05 40.74885 51.64945 34002 ft 559 kts 80°
2026-05-07 16:05 40.75742 51.69934 34371 ft 557 kts 80°
2026-05-07 16:05 40.76571 51.74840 34692 ft 555 kts 81°
2026-05-07 16:05 40.77395 51.79803 34976 ft 554 kts 81°
2026-05-07 16:06 40.78220 51.84846 35059 ft 556 kts 81°
2026-05-07 16:06 40.79827 51.94768 35104 ft 556 kts 81°
2026-05-07 16:07 40.81432 52.04720 35104 ft 553 kts 81°
2026-05-07 16:07 40.83022 52.14617 35112 ft 550 kts 81°
2026-05-07 16:08 40.84600 52.24493 35108 ft 549 kts 81°
2026-05-07 16:08 40.86171 52.34371 35119 ft 550 kts 81°
2026-05-07 16:09 40.87740 52.44280 35115 ft 551 kts 81°
2026-05-07 16:09 40.89311 52.54240 35119 ft 553 kts 81°
2026-05-07 16:10 40.90591 52.64259 35121 ft 551 kts 90°
2026-05-07 16:10 40.90981 52.74363 35108 ft 551 kts 92°
2026-05-07 16:11 40.91331 52.84431 35106 ft 552 kts 91°
2026-05-07 16:11 40.91752 52.94579 35104 ft 551 kts 91°
2026-05-07 16:12 40.92187 53.04705 35109 ft 551 kts 91°
2026-05-07 16:12 40.92595 53.14812 35107 ft 550 kts 91°
2026-05-07 16:13 40.92964 53.24917 35105 ft 549 kts 91°
2026-05-07 16:13 40.93325 53.35002 35104 ft 549 kts 91°
2026-05-07 16:14 40.93689 53.45078 35103 ft 549 kts 91°
2026-05-07 16:14 40.94047 53.55111 35103 ft 549 kts 91°
2026-05-07 16:15 40.94398 53.65203 35102 ft 549 kts 91°
2026-05-07 16:15 40.94738 53.75258 35105 ft 549 kts 91°
2026-05-07 16:16 40.95071 53.85358 35100 ft 550 kts 92°
2026-05-07 16:16 40.95395 53.95462 35105 ft 550 kts 92°
2026-05-07 16:17 40.95711 54.05583 35102 ft 550 kts 92°
2026-05-07 16:17 40.96019 54.15702 35082 ft 550 kts 92°
2026-05-07 16:18 40.96317 54.25796 35093 ft 549 kts 92°
2026-05-07 16:18 40.96606 54.35891 35095 ft 549 kts 92°
2026-05-07 16:19 40.96886 54.45984 35095 ft 549 kts 92°
2026-05-07 16:19 40.97159 54.56065 35099 ft 548 kts 92°
2026-05-07 16:20 40.97424 54.66159 35092 ft 548 kts 92°
2026-05-07 16:20 40.97682 54.76229 35079 ft 548 kts 92°
2026-05-07 16:21 40.97934 54.86297 35089 ft 547 kts 92°
2026-05-07 16:21 40.98156 54.96358 35092 ft 547 kts 93°
2026-05-07 16:22 40.98355 55.06409 35094 ft 547 kts 93°
2026-05-07 16:22 40.98556 55.16401 35082 ft 547 kts 93°
2026-05-07 16:23 40.98756 55.26456 35086 ft 547 kts 93°
2026-05-07 16:23 40.98948 55.36508 35059 ft 547 kts 93°
2026-05-07 16:24 40.99132 55.46564 35073 ft 546 kts 93°
2026-05-07 16:24 40.99307 55.56599 35080 ft 546 kts 93°
2026-05-07 16:25 40.99477 55.66646 35072 ft 546 kts 93°
2026-05-07 16:25 40.99639 55.76687 35070 ft 545 kts 93°
2026-05-07 16:26 40.99787 55.86721 35069 ft 546 kts 93°
2026-05-07 16:26 40.99937 55.96784 35039 ft 546 kts 93°
2026-05-07 16:27 41.00089 56.06824 35062 ft 546 kts 93°
2026-05-07 16:27 41.00233 56.16871 35058 ft 546 kts 93°
2026-05-07 16:28 41.00369 56.26910 35050 ft 545 kts 93°
2026-05-07 16:28 41.00500 56.36946 35052 ft 545 kts 93°
2026-05-07 16:29 41.00620 56.46977 35050 ft 545 kts 93°
2026-05-07 16:29 41.01281 56.56985 35055 ft 547 kts 84°
2026-05-07 16:30 41.02512 56.66939 35032 ft 548 kts 83°
2026-05-07 16:30 41.03749 56.76882 35046 ft 548 kts 83°
2026-05-07 16:31 41.04941 56.86845 35046 ft 547 kts 84°
2026-05-07 16:31 41.06097 56.96742 35044 ft 547 kts 84°
2026-05-07 16:32 41.07250 57.06702 35042 ft 547 kts 84°
2026-05-07 16:32 41.08397 57.16664 35039 ft 547 kts 84°
2026-05-07 16:33 41.09537 57.26628 35039 ft 547 kts 84°
2026-05-07 16:33 41.10668 57.36585 35038 ft 546 kts 84°
2026-05-07 16:34 41.11791 57.46550 35040 ft 546 kts 84°
2026-05-07 16:34 41.12904 57.56508 35042 ft 546 kts 84°
2026-05-07 16:35 41.14008 57.66465 35033 ft 545 kts 84°
2026-05-07 16:35 41.15103 57.76408 35034 ft 545 kts 84°
2026-05-07 16:36 41.16006 57.84668 35045 ft 544 kts 84°
2026-05-07 16:36 41.17087 57.94616 35028 ft 544 kts 84°
2026-05-07 16:37 41.18336 58.06161 35045 ft 544 kts 84°
2026-05-07 16:37 41.19219 58.14503 35037 ft 544 kts 84°
2026-05-07 16:38 41.20246 58.24383 35035 ft 544 kts 85°
2026-05-07 16:38 41.21280 58.34335 35025 ft 544 kts 85°
2026-05-07 16:39 41.22314 58.44289 35032 ft 543 kts 85°
2026-05-07 16:39 41.23339 58.54231 35034 ft 543 kts 85°
2026-05-07 16:40 41.24353 58.64157 35027 ft 542 kts 85°
2026-05-07 16:40 41.25357 58.74065 35027 ft 540 kts 85°
2026-05-07 16:41 41.26350 58.83962 35030 ft 539 kts 85°
2026-05-07 16:41 41.27325 58.93774 35025 ft 538 kts 85°
2026-05-07 16:42 41.28300 59.03658 35025 ft 538 kts 85°
2026-05-07 16:42 41.29261 59.13490 35020 ft 538 kts 85°
2026-05-07 16:43 41.30219 59.23371 35021 ft 538 kts 85°
2026-05-07 16:43 41.31164 59.33195 35017 ft 538 kts 85°
2026-05-07 16:44 41.32108 59.43091 35011 ft 538 kts 85°
2026-05-07 16:44 41.33046 59.52971 34991 ft 538 kts 85°
2026-05-07 16:45 41.33968 59.62843 35000 ft 537 kts 86°
2026-05-07 16:45 41.34180 59.72706 34992 ft 531 kts 97°
2026-05-07 16:46 41.33621 59.82479 35004 ft 529 kts 98°
2026-05-07 16:46 41.33113 59.92252 34997 ft 529 kts 97°
2026-05-07 16:47 41.32658 60.02026 34994 ft 529 kts 97°
2026-05-07 16:47 41.32181 60.11790 34989 ft 529 kts 97°
2026-05-07 16:48 41.31704 60.21546 34981 ft 528 kts 97°
2026-05-07 16:48 41.31235 60.31285 34985 ft 527 kts 97°
2026-05-07 16:49 41.30764 60.40998 34980 ft 526 kts 95°
2026-05-07 16:49 41.30978 60.50677 34990 ft 528 kts 88°
2026-05-07 16:50 41.31547 60.60412 34981 ft 528 kts 88°
2026-05-07 16:50 41.32096 60.70138 34974 ft 527 kts 88°
2026-05-07 16:51 41.32605 60.79867 34968 ft 527 kts 89°
2026-05-07 16:51 41.33096 60.89596 34975 ft 527 kts 89°
2026-05-07 16:52 41.33581 60.99325 34964 ft 527 kts 89°
2026-05-07 16:52 41.34075 61.09069 34964 ft 528 kts 88°
2026-05-07 16:53 41.34572 61.18811 34964 ft 528 kts 88°
2026-05-07 16:53 41.35025 61.28567 34945 ft 529 kts 88°
2026-05-07 16:54 41.35475 61.38342 34947 ft 529 kts 88°
2026-05-07 16:54 41.35923 61.48127 34944 ft 530 kts 88°
2026-05-07 16:55 41.36363 61.57917 34947 ft 530 kts 88°
2026-05-07 16:55 41.36797 61.67719 34944 ft 530 kts 89°
2026-05-07 16:56 41.37223 61.77516 34928 ft 530 kts 89°
2026-05-07 16:56 41.37845 61.92207 34934 ft 529 kts 89°
2026-05-07 16:57 41.38249 62.01984 34930 ft 528 kts 89°
2026-05-07 16:57 41.38644 62.11742 34930 ft 528 kts 89°
2026-05-07 16:58 41.39028 62.21433 34924 ft 527 kts 89°
2026-05-07 16:58 41.39405 62.31169 34924 ft 526 kts 89°
2026-05-07 16:59 41.39775 62.40902 34916 ft 526 kts 89°
2026-05-07 16:59 41.40137 62.50625 34922 ft 526 kts 89°
2026-05-07 17:00 41.40509 62.60342 34896 ft 524 kts 89°
2026-05-07 17:00 41.40889 62.70028 34909 ft 524 kts 89°
2026-05-07 17:01 41.41260 62.79715 34909 ft 523 kts 89°
2026-05-07 17:01 41.41619 62.89391 34905 ft 522 kts 89°
2026-05-07 17:02 41.41969 62.99048 34902 ft 522 kts 89°
2026-05-07 17:02 41.42309 63.08695 34900 ft 521 kts 89°
2026-05-07 17:03 41.42641 63.18328 34896 ft 520 kts 89°
2026-05-07 17:03 41.42967 63.27958 34901 ft 520 kts 90°
2026-05-07 17:04 41.43283 63.37580 34899 ft 520 kts 90°
2026-05-07 17:04 41.43592 63.47215 34884 ft 520 kts 89°
2026-05-07 17:05 41.43892 63.56844 34895 ft 521 kts 89°
2026-05-07 17:05 41.44187 63.66496 34899 ft 521 kts 90°
2026-05-07 17:06 41.44461 63.76159 34894 ft 522 kts 90°
2026-05-07 17:06 41.44717 63.85764 34898 ft 522 kts 90°
2026-05-07 17:07 41.44969 63.95424 34896 ft 521 kts 90°
2026-05-07 17:07 41.45215 64.05082 34885 ft 521 kts 90°
2026-05-07 17:08 41.45452 64.14717 34888 ft 520 kts 90°
2026-05-07 17:08 41.45682 64.24325 34888 ft 518 kts 90°
2026-05-07 17:09 41.45902 64.33916 34887 ft 517 kts 90°
2026-05-07 17:09 41.46114 64.43481 34881 ft 516 kts 90°
2026-05-07 17:10 41.46317 64.53036 34886 ft 515 kts 90°
2026-05-07 17:10 41.46513 64.62576 34890 ft 515 kts 90°
2026-05-07 17:11 41.46701 64.72122 34888 ft 515 kts 90°
2026-05-07 17:11 41.46880 64.81679 34888 ft 516 kts 90°
2026-05-07 17:12 41.47053 64.91242 34889 ft 517 kts 90°
2026-05-07 17:12 41.47218 65.00833 34877 ft 517 kts 90°
2026-05-07 17:13 41.47374 65.10390 34878 ft 515 kts 90°
2026-05-07 17:13 41.47523 65.19933 34881 ft 514 kts 90°
2026-05-07 17:14 41.47662 65.29443 34866 ft 513 kts 90°
2026-05-07 17:14 41.47794 65.38933 34891 ft 511 kts 90°
2026-05-07 17:15 41.47918 65.48403 34890 ft 510 kts 90°
2026-05-07 17:15 41.48034 65.57851 34893 ft 510 kts 90°
2026-05-07 17:16 41.48141 65.67235 34896 ft 509 kts 90°
2026-05-07 17:16 41.48243 65.76684 34903 ft 510 kts 90°
2026-05-07 17:17 41.48309 65.86151 34902 ft 510 kts 91°
2026-05-07 17:17 41.48323 65.95627 34901 ft 511 kts 91°
2026-05-07 17:18 41.48330 66.05101 34903 ft 511 kts 91°
2026-05-07 17:18 41.48338 66.14591 34909 ft 511 kts 91°
2026-05-07 17:19 41.48341 66.24075 34905 ft 512 kts 91°
2026-05-07 17:19 41.48336 66.33560 34912 ft 511 kts 91°
2026-05-07 17:20 41.48323 66.43044 34909 ft 511 kts 91°
2026-05-07 17:20 41.48303 66.52529 34912 ft 511 kts 91°
2026-05-07 17:21 41.48193 66.61996 34917 ft 510 kts 96°
2026-05-07 17:21 41.47293 66.71334 34919 ft 507 kts 100°
2026-05-07 17:22 41.46265 66.80642 34911 ft 507 kts 100°
2026-05-07 17:22 41.45261 66.89940 34913 ft 507 kts 99°
2026-05-07 17:23 41.44278 66.99236 34907 ft 506 kts 99°
2026-05-07 17:23 41.43304 67.08445 34915 ft 505 kts 99°
2026-05-07 17:24 41.42316 67.17708 34922 ft 505 kts 99°
2026-05-07 17:24 41.41318 67.26971 34920 ft 505 kts 99°
2026-05-07 17:25 41.40313 67.36225 34926 ft 505 kts 99°
2026-05-07 17:25 41.39471 67.43921 34934 ft 505 kts 99°
2026-05-07 17:26 41.38452 67.53177 34934 ft 505 kts 99°
2026-05-07 17:26 41.37425 67.62433 34934 ft 505 kts 99°
2026-05-07 17:27 41.36389 67.71692 34943 ft 506 kts 99°
2026-05-07 17:27 41.35347 67.80949 34945 ft 506 kts 99°
2026-05-07 17:28 41.34296 67.90207 34950 ft 506 kts 99°
2026-05-07 17:28 41.33238 67.99465 34953 ft 506 kts 99°
2026-05-07 17:29 41.32172 68.08719 34951 ft 506 kts 99°
2026-05-07 17:29 41.31099 68.17971 34951 ft 506 kts 100°
2026-05-07 17:30 41.30015 68.27207 34956 ft 505 kts 100°
2026-05-07 17:30 41.28920 68.36423 34957 ft 504 kts 100°
2026-05-07 17:31 41.27830 68.45623 34959 ft 504 kts 100°
2026-05-07 17:31 41.26733 68.54843 34966 ft 503 kts 100°
2026-05-07 17:32 41.25638 68.63973 34966 ft 503 kts 100°
2026-05-07 17:32 41.24528 68.73146 34968 ft 502 kts 100°
2026-05-07 17:33 41.23412 68.82310 34968 ft 502 kts 100°
2026-05-07 17:33 41.22289 68.91478 34984 ft 502 kts 100°
2026-05-07 17:34 41.21164 69.00594 34988 ft 503 kts 100°
2026-05-07 17:34 41.20029 69.09748 34991 ft 503 kts 100°
2026-05-07 17:35 41.18886 69.18910 34993 ft 503 kts 100°
2026-05-07 17:35 41.17933 69.28109 35000 ft 503 kts 97°
2026-05-07 17:36 41.17196 69.37350 34996 ft 504 kts 97°
2026-05-07 17:36 41.16453 69.46604 35011 ft 504 kts 97°
2026-05-07 17:37 41.15696 69.55850 35028 ft 504 kts 97°
2026-05-07 17:37 41.14924 69.65108 35028 ft 505 kts 97°
2026-05-07 17:38 41.14143 69.74367 35060 ft 505 kts 97°
2026-05-07 17:38 41.13355 69.83623 35079 ft 505 kts 97°
2026-05-07 17:39 41.12561 69.92890 35090 ft 505 kts 97°
2026-05-07 17:39 41.11758 70.02161 35099 ft 506 kts 97°
2026-05-07 17:40 41.10952 70.11428 35128 ft 506 kts 97°
2026-05-07 17:40 41.10146 70.20702 35132 ft 506 kts 95°
2026-05-07 17:41 41.10131 70.29945 35122 ft 506 kts 84°
2026-05-07 17:41 41.10875 70.39215 35146 ft 506 kts 84°
2026-05-07 17:42 41.11597 70.48504 35145 ft 506 kts 84°
2026-05-07 17:42 41.12270 70.57796 35154 ft 507 kts 84°
2026-05-07 17:43 41.12935 70.67109 35151 ft 507 kts 84°
2026-05-07 17:43 41.13587 70.76419 35113 ft 507 kts 85°
2026-05-07 17:44 41.14220 70.85746 35115 ft 507 kts 85°
2026-05-07 17:44 41.14849 70.95069 35095 ft 508 kts 84°
2026-05-07 17:45 41.15481 71.04399 35081 ft 508 kts 85°
2026-05-07 17:45 41.16105 71.13732 35085 ft 508 kts 85°
2026-05-07 17:46 41.16721 71.23078 35063 ft 508 kts 85°
2026-05-07 17:46 41.17329 71.32419 35034 ft 508 kts 85°
2026-05-07 17:47 41.17931 71.41767 35019 ft 508 kts 85°
2026-05-07 17:47 41.18526 71.51118 35011 ft 508 kts 85°
2026-05-07 17:48 41.19113 71.60468 35017 ft 509 kts 85°
2026-05-07 17:48 41.19697 71.69830 35015 ft 509 kts 85°
2026-05-07 17:49 41.20272 71.79199 35027 ft 509 kts 85°
2026-05-07 17:49 41.20822 71.88509 35042 ft 509 kts 85°
2026-05-07 17:50 41.21372 71.97946 35055 ft 508 kts 85°
2026-05-07 17:50 41.21915 72.07239 35047 ft 507 kts 85°
2026-05-07 17:51 41.22457 72.16566 35065 ft 506 kts 85°
2026-05-07 17:51 41.22982 72.25876 35089 ft 505 kts 85°
2026-05-07 17:52 41.23502 72.35178 35053 ft 505 kts 85°
2026-05-07 17:52 41.24023 72.44474 35077 ft 504 kts 85°
2026-05-07 17:53 41.24542 72.53769 35103 ft 505 kts 85°
2026-05-07 17:53 41.25045 72.63075 35110 ft 505 kts 85°
2026-05-07 17:54 41.25523 72.72395 35125 ft 506 kts 85°
2026-05-07 17:54 41.25996 72.81715 35139 ft 505 kts 85°
2026-05-07 17:55 41.26465 72.90953 35141 ft 505 kts 85°
2026-05-07 17:55 41.26938 73.00350 35156 ft 505 kts 85°
2026-05-07 17:56 41.27395 73.09588 35170 ft 503 kts 85°
2026-05-07 17:56 41.27848 73.18929 35153 ft 502 kts 85°
2026-05-07 17:57 41.28215 73.26618 35166 ft 501 kts 85°
2026-05-07 17:57 41.28720 73.37360 35183 ft 500 kts 86°
2026-05-07 17:58 41.29146 73.46582 35181 ft 500 kts 86°
2026-05-07 17:58 41.29564 73.55803 35200 ft 499 kts 86°
2026-05-07 17:59 41.29976 73.65014 35196 ft 499 kts 86°
2026-05-07 17:59 41.30381 73.74223 35199 ft 498 kts 86°
2026-05-07 18:00 41.30769 73.83423 35200 ft 497 kts 86°
2026-05-07 18:00 41.31164 73.92597 35206 ft 497 kts 86°
2026-05-07 18:01 41.31554 74.01765 35203 ft 496 kts 85°
2026-05-07 18:01 41.32158 74.10904 35207 ft 496 kts 83°
2026-05-07 18:02 41.33207 74.24621 35203 ft 497 kts 83°
2026-05-07 18:03 41.33869 74.33790 35206 ft 498 kts 84°
2026-05-07 18:03 41.34510 74.42970 35209 ft 499 kts 84°
2026-05-07 18:04 41.35145 74.52179 35189 ft 500 kts 84°
2026-05-07 18:04 41.35776 74.61375 35197 ft 499 kts 84°
2026-05-07 18:05 41.36399 74.70558 35197 ft 498 kts 84°
2026-05-07 18:05 41.37019 74.79734 35199 ft 498 kts 84°
2026-05-07 18:06 41.37625 74.88914 35197 ft 498 kts 84°
2026-05-07 18:06 41.38207 74.98097 35193 ft 498 kts 84°
2026-05-07 18:07 41.38787 75.07285 35206 ft 498 kts 84°
2026-05-07 18:07 41.39370 75.16480 35199 ft 499 kts 84°
2026-05-07 18:08 41.39948 75.25686 35200 ft 499 kts 84°
2026-05-07 18:08 41.40515 75.34832 35199 ft 499 kts 84°
2026-05-07 18:09 41.41079 75.44052 35201 ft 499 kts 84°
2026-05-07 18:09 41.41637 75.53269 35188 ft 499 kts 84°
2026-05-07 18:10 41.42191 75.62490 35184 ft 499 kts 84°
2026-05-07 18:10 41.42736 75.71699 35178 ft 499 kts 84°
2026-05-07 18:11 41.43259 75.80915 35187 ft 499 kts 84°
2026-05-07 18:11 41.43769 75.90137 35166 ft 499 kts 84°
2026-05-07 18:12 41.44281 75.99349 35189 ft 498 kts 84°
2026-05-07 18:12 41.44791 76.08552 35192 ft 498 kts 84°
2026-05-07 18:13 41.45211 76.16195 35197 ft 498 kts 84°
2026-05-07 18:13 41.45708 76.25397 35214 ft 497 kts 84°
2026-05-07 18:14 41.46197 76.34592 35210 ft 497 kts 84°
2026-05-07 18:14 41.46679 76.43784 35223 ft 498 kts 84°
2026-05-07 18:15 41.47153 76.52989 35236 ft 497 kts 84°
2026-05-07 18:15 41.47620 76.62185 35225 ft 497 kts 84°
2026-05-07 18:16 41.48079 76.71368 35237 ft 496 kts 84°
2026-05-07 18:16 41.48527 76.80535 35277 ft 496 kts 84°
2026-05-07 18:17 41.48974 76.89716 35266 ft 496 kts 84°
2026-05-07 18:17 41.49412 76.98888 35279 ft 495 kts 84°
2026-05-07 18:18 41.49839 77.08044 35271 ft 494 kts 84°
2026-05-07 18:18 41.50258 77.17173 35287 ft 492 kts 84°
2026-05-07 18:19 41.50670 77.26283 35305 ft 492 kts 85°
2026-05-07 18:19 41.51075 77.35390 35293 ft 492 kts 85°
2026-05-07 18:20 41.51472 77.44512 35312 ft 492 kts 85°
2026-05-07 18:20 41.51863 77.53636 35310 ft 493 kts 85°
2026-05-07 18:21 41.52248 77.62776 35325 ft 493 kts 86°
2026-05-07 18:21 41.52622 77.71856 35313 ft 493 kts 86°
2026-05-07 18:22 41.52994 77.81049 35321 ft 493 kts 86°
2026-05-07 18:22 41.53353 77.90119 35321 ft 493 kts 86°
2026-05-07 18:23 41.53707 77.99247 35328 ft 492 kts 86°
2026-05-07 18:23 41.54055 78.08354 35312 ft 491 kts 86°
2026-05-07 18:24 41.54393 78.17432 35312 ft 489 kts 86°
2026-05-07 18:24 41.54725 78.26481 35315 ft 488 kts 86°
2026-05-07 18:25 41.55049 78.35524 35310 ft 488 kts 86°
2026-05-07 18:25 41.55366 78.44573 35310 ft 488 kts 86°
2026-05-07 18:26 41.55678 78.53636 35301 ft 489 kts 86°
2026-05-07 18:26 41.55986 78.62710 35297 ft 490 kts 86°
2026-05-07 18:27 41.56290 78.71793 35297 ft 489 kts 86°
2026-05-07 18:27 41.56442 78.80877 35272 ft 490 kts 92°
2026-05-07 18:28 41.55460 78.89891 35239 ft 491 kts 104°
2026-05-07 18:28 41.53663 78.98670 35234 ft 490 kts 104°
2026-05-07 18:29 41.51847 79.07455 35239 ft 491 kts 104°
2026-05-07 18:29 41.50068 79.16253 35181 ft 491 kts 104°
2026-05-07 18:30 41.48302 79.25060 35173 ft 492 kts 104°
2026-05-07 18:30 41.46533 79.33859 35150 ft 492 kts 103°
2026-05-07 18:31 41.44753 79.42661 35117 ft 492 kts 103°
2026-05-07 18:31 41.42979 79.51388 35110 ft 491 kts 103°
2026-05-07 18:32 41.41178 79.60213 35102 ft 490 kts 103°
2026-05-07 18:32 41.39397 79.68900 35085 ft 489 kts 103°
2026-05-07 18:33 41.37600 79.77630 35080 ft 489 kts 103°
2026-05-07 18:33 41.35801 79.86340 35090 ft 487 kts 103°
2026-05-07 18:34 41.34001 79.95021 35078 ft 486 kts 103°
2026-05-07 18:34 41.32199 80.03672 35065 ft 484 kts 103°
2026-05-07 18:35 41.30398 80.12294 35059 ft 483 kts 103°
2026-05-07 18:35 41.28597 80.20890 35069 ft 482 kts 103°
2026-05-07 18:36 41.26796 80.29464 35051 ft 481 kts 103°
2026-05-07 18:36 41.24973 80.38010 35052 ft 481 kts 104°
2026-05-07 18:37 41.23125 80.46541 35049 ft 480 kts 104°
2026-05-07 18:37 41.21279 80.55074 35068 ft 481 kts 104°
2026-05-07 18:38 41.19434 80.63610 35051 ft 481 kts 104°
2026-05-07 18:38 41.17583 80.72149 35055 ft 482 kts 104°
2026-05-07 18:39 41.15724 80.80688 35052 ft 482 kts 104°
2026-05-07 18:39 41.13869 80.89181 35047 ft 483 kts 104°
2026-05-07 18:40 41.11994 80.97724 35049 ft 483 kts 104°
2026-05-07 18:40 41.10114 81.06262 35039 ft 482 kts 104°
2026-05-07 18:41 41.08230 81.14783 35039 ft 481 kts 104°
2026-05-07 18:41 41.06341 81.23292 35039 ft 481 kts 104°
2026-05-07 18:42 41.04450 81.31787 35053 ft 480 kts 104°
2026-05-07 18:42 41.02553 81.40274 35049 ft 480 kts 104°
2026-05-07 18:43 41.00653 81.48749 35042 ft 480 kts 104°
2026-05-07 18:43 40.98753 81.57213 35040 ft 480 kts 104°
2026-05-07 18:44 40.96842 81.65675 35052 ft 480 kts 105°
2026-05-07 18:44 40.95089 81.74176 35039 ft 479 kts 102°
2026-05-07 18:45 40.93505 81.82729 35036 ft 479 kts 102°
2026-05-07 18:45 40.91919 81.91281 35046 ft 479 kts 102°
2026-05-07 18:46 40.90298 81.99832 35045 ft 480 kts 102°
2026-05-07 18:46 40.88658 82.08379 35036 ft 480 kts 103°
2026-05-07 18:47 40.87009 82.16920 35042 ft 480 kts 103°
2026-05-07 18:47 40.85355 82.25456 35042 ft 480 kts 103°
2026-05-07 18:48 40.83706 82.33935 35048 ft 480 kts 103°
2026-05-07 18:48 40.82040 82.42464 35051 ft 480 kts 103°
2026-05-07 18:49 40.80368 82.50992 35041 ft 480 kts 103°
2026-05-07 18:49 40.78690 82.59513 35044 ft 480 kts 103°
2026-05-07 18:50 40.77005 82.68029 35046 ft 480 kts 103°
2026-05-07 18:50 40.75315 82.76539 35042 ft 480 kts 103°
2026-05-07 18:51 40.73619 82.85045 35048 ft 480 kts 103°
2026-05-07 18:51 40.71915 82.93550 35041 ft 480 kts 103°
2026-05-07 18:52 40.70204 83.02059 35048 ft 480 kts 103°
2026-05-07 18:52 40.68487 83.10566 35046 ft 481 kts 103°
2026-05-07 18:53 40.66760 83.19082 35052 ft 481 kts 103°
2026-05-07 18:53 40.65026 83.27602 35048 ft 482 kts 104°
2026-05-07 18:54 40.63284 83.36124 35047 ft 482 kts 104°
2026-05-07 18:54 40.61535 83.44647 35048 ft 482 kts 104°
2026-05-07 18:55 40.59780 83.53165 35052 ft 482 kts 104°
2026-05-07 18:55 40.58019 83.61685 35054 ft 482 kts 104°
2026-05-07 18:56 40.56253 83.70195 35053 ft 482 kts 104°
2026-05-07 18:56 40.54495 83.78642 35056 ft 482 kts 104°
2026-05-07 18:57 40.52725 83.87138 35056 ft 482 kts 104°
2026-05-07 18:57 40.50944 83.95627 35059 ft 482 kts 104°
2026-05-07 18:58 40.49202 84.04121 35055 ft 482 kts 104°
2026-05-07 18:58 40.47478 84.12623 35061 ft 482 kts 104°
2026-05-07 18:59 40.45750 84.21124 35060 ft 482 kts 104°
2026-05-07 18:59 40.44013 84.29618 35066 ft 482 kts 104°
2026-05-07 19:00 40.42268 84.38106 35061 ft 482 kts 104°
2026-05-07 19:00 40.40517 84.46594 35066 ft 482 kts 104°
2026-05-07 19:01 40.38758 84.55082 35071 ft 482 kts 104°
2026-05-07 19:01 40.37291 84.62133 35058 ft 482 kts 104°
2026-05-07 19:02 40.35521 84.70615 35065 ft 482 kts 104°
2026-05-07 19:02 40.33744 84.79095 35057 ft 483 kts 105°
2026-05-07 19:03 40.31959 84.87578 35061 ft 483 kts 105°
2026-05-07 19:03 40.30168 84.96054 35059 ft 483 kts 105°
2026-05-07 19:04 40.28370 85.04531 35060 ft 483 kts 105°
2026-05-07 19:04 40.26566 85.13004 35066 ft 483 kts 105°
2026-05-07 19:05 40.24756 85.21475 35060 ft 483 kts 105°
2026-05-07 19:05 40.22939 85.29940 35059 ft 483 kts 105°
2026-05-07 19:06 40.21118 85.38397 35063 ft 483 kts 105°
2026-05-07 19:06 40.18373 85.51080 35068 ft 483 kts 105°
2026-05-07 19:07 40.16535 85.59534 35054 ft 484 kts 105°
2026-05-07 19:07 40.14690 85.67992 35064 ft 484 kts 105°
2026-05-07 19:08 40.12839 85.76447 35061 ft 484 kts 105°
2026-05-07 19:08 40.10984 85.84898 35065 ft 484 kts 105°
2026-05-07 19:09 40.09127 85.93351 35066 ft 484 kts 106°
2026-05-07 19:09 40.07213 86.01782 35066 ft 484 kts 108°
2026-05-07 19:10 40.05000 86.10026 35068 ft 484 kts 110°
2026-05-07 19:10 40.02687 86.18284 35067 ft 485 kts 110°
2026-05-07 19:11 40.00393 86.26553 35061 ft 485 kts 109°
2026-05-07 19:11 39.98115 86.34842 35065 ft 485 kts 109°
2026-05-07 19:12 39.95839 86.43136 35068 ft 486 kts 109°
2026-05-07 19:12 39.93559 86.51418 35053 ft 486 kts 110°
2026-05-07 19:13 39.91268 86.59702 35032 ft 486 kts 110°
2026-05-07 19:13 39.88977 86.67948 35057 ft 484 kts 110°
2026-05-07 19:14 39.86674 86.76230 35056 ft 487 kts 110°
2026-05-07 19:14 39.84355 86.84538 35053 ft 489 kts 110°
2026-05-07 19:15 39.82024 86.92858 35051 ft 489 kts 110°
2026-05-07 19:15 39.79689 87.01164 35053 ft 488 kts 110°
2026-05-07 19:16 39.77353 87.09448 35043 ft 487 kts 110°
2026-05-07 19:16 39.75033 87.17650 35044 ft 486 kts 110°
2026-05-07 19:17 39.72692 87.25899 35046 ft 485 kts 110°
2026-05-07 19:17 39.70350 87.34124 35056 ft 485 kts 110°
2026-05-07 19:18 39.68004 87.42341 35046 ft 485 kts 110°
2026-05-07 19:18 39.65649 87.50561 35061 ft 485 kts 110°
2026-05-07 19:19 39.63288 87.58779 35056 ft 486 kts 110°
2026-05-07 19:19 39.60937 87.66936 35053 ft 486 kts 110°
2026-05-07 19:20 39.58563 87.75147 35047 ft 486 kts 110°
2026-05-07 19:20 39.56186 87.83340 35043 ft 486 kts 110°
2026-05-07 19:21 39.53800 87.91542 35044 ft 486 kts 110°
2026-05-07 19:21 39.51415 87.99713 35044 ft 486 kts 110°
2026-05-07 19:22 39.49011 88.07923 35042 ft 486 kts 110°
2026-05-07 19:22 39.46601 88.16130 35052 ft 486 kts 110°
2026-05-07 19:23 39.44203 88.24271 35048 ft 486 kts 110°
2026-05-07 19:23 39.41782 88.32467 35047 ft 486 kts 110°
2026-05-07 19:24 39.39374 88.40590 35046 ft 486 kts 110°
2026-05-07 19:24 39.36943 88.48767 35057 ft 486 kts 110°
2026-05-07 19:25 39.34504 88.56946 35051 ft 487 kts 110°
2026-05-07 19:25 39.32079 88.65055 35052 ft 487 kts 110°
2026-05-07 19:26 39.29623 88.73243 35066 ft 488 kts 110°
2026-05-07 19:26 39.27162 88.81423 35066 ft 488 kts 111°
2026-05-07 19:27 39.24707 88.89555 35068 ft 489 kts 111°
2026-05-07 19:27 39.22225 88.97756 35075 ft 490 kts 111°
2026-05-07 19:28 39.19738 89.05947 35103 ft 490 kts 111°
2026-05-07 19:28 39.17259 89.14088 35109 ft 491 kts 111°
2026-05-07 19:29 39.14754 89.22291 35107 ft 491 kts 111°
2026-05-07 19:29 39.12248 89.30469 35126 ft 491 kts 111°
2026-05-07 19:30 39.09747 89.38610 35162 ft 491 kts 111°
2026-05-07 19:30 39.07225 89.46793 35179 ft 491 kts 111°
2026-05-07 19:31 39.04713 89.54921 35199 ft 491 kts 111°
2026-05-07 19:31 39.02174 89.63110 35238 ft 491 kts 111°
2026-05-07 19:32 38.99652 89.71225 35245 ft 491 kts 111°
2026-05-07 19:32 38.97112 89.79371 35248 ft 491 kts 111°
2026-05-07 19:33 38.94567 89.87514 35250 ft 491 kts 111°
2026-05-07 19:33 38.92016 89.95648 35282 ft 491 kts 111°
2026-05-07 19:34 38.89459 90.03784 35298 ft 491 kts 111°
2026-05-07 19:34 38.86898 90.11910 35287 ft 491 kts 111°
2026-05-07 19:35 38.84334 90.20032 35322 ft 491 kts 111°
2026-05-07 19:35 38.81771 90.28141 35323 ft 490 kts 111°
2026-05-07 19:36 38.79194 90.36239 35331 ft 490 kts 112°
2026-05-07 19:36 38.76614 90.44280 35329 ft 490 kts 112°
2026-05-07 19:37 38.74021 90.52374 35334 ft 491 kts 112°
2026-05-07 19:37 38.71432 90.60470 35339 ft 491 kts 112°
2026-05-07 19:38 38.68834 90.68569 35332 ft 492 kts 112°
2026-05-07 19:38 38.66357 90.76734 35329 ft 492 kts 110°
2026-05-07 19:39 38.64085 90.85013 35329 ft 495 kts 110°
2026-05-07 19:39 38.62192 90.91941 35328 ft 498 kts 110°
2026-05-07 19:40 38.59474 91.01720 35323 ft 501 kts 110°
2026-05-07 19:40 38.57117 91.10099 35614 ft 501 kts 111°
2026-05-07 19:41 38.55939 91.14268 36037 ft 497 kts 111°
2026-05-07 19:41 38.54765 91.18419 36262 ft 498 kts 111°
2026-05-07 19:41 38.53581 91.22592 36409 ft 501 kts 111°
2026-05-07 19:41 38.52394 91.26774 36647 ft 501 kts 111°
2026-05-07 19:42 38.51209 91.30947 36926 ft 500 kts 111°
2026-05-07 19:42 38.50036 91.35072 37190 ft 500 kts 111°
2026-05-07 19:42 38.47632 91.43505 37276 ft 503 kts 112°
2026-05-07 19:43 38.45256 91.51820 37277 ft 501 kts 112°
2026-05-07 19:43 38.42866 91.60153 37265 ft 499 kts 112°
2026-05-07 19:44 38.40475 91.68460 37247 ft 499 kts 112°
2026-05-07 19:44 38.38077 91.76767 37266 ft 500 kts 112°
2026-05-07 19:45 38.35663 91.85112 37265 ft 503 kts 112°
2026-05-07 19:45 38.33232 91.93494 37245 ft 506 kts 113°
2026-05-07 19:46 38.30785 92.01899 37248 ft 507 kts 113°
2026-05-07 19:46 38.28323 92.10330 37247 ft 508 kts 114°
2026-05-07 19:47 38.25854 92.18761 37250 ft 509 kts 114°
2026-05-07 19:47 38.23382 92.27184 37247 ft 508 kts 114°
2026-05-07 19:48 38.20908 92.35593 37239 ft 507 kts 114°
2026-05-07 19:48 38.18436 92.43986 37237 ft 506 kts 114°
2026-05-07 19:49 38.15889 92.52316 37209 ft 504 kts 118°
2026-05-07 19:49 38.12928 92.60360 37230 ft 503 kts 121°
2026-05-07 19:50 38.10364 92.67002 37232 ft 504 kts 121°
2026-05-07 19:50 38.07295 92.75044 37227 ft 508 kts 121°
2026-05-07 19:51 38.04241 92.83174 37233 ft 512 kts 120°
2026-05-07 19:51 38.00684 92.92686 37229 ft 515 kts 120°
2026-05-07 19:52 37.98101 92.99571 37224 ft 517 kts 120°
2026-05-07 19:52 37.95006 93.07792 37206 ft 517 kts 121°
2026-05-07 19:53 37.91905 93.16000 37225 ft 517 kts 121°
2026-05-07 19:53 37.88816 93.24147 37205 ft 517 kts 121°
2026-05-07 19:54 37.85700 93.32347 37217 ft 517 kts 121°
2026-05-07 19:54 37.82573 93.40555 37202 ft 518 kts 121°
2026-05-07 19:55 37.79431 93.48742 37209 ft 518 kts 122°
2026-05-07 19:55 37.76287 93.56939 37189 ft 518 kts 121°
2026-05-07 19:56 37.73145 93.65130 37194 ft 518 kts 122°
2026-05-07 19:56 37.69998 93.73310 37190 ft 518 kts 122°
2026-05-07 19:57 37.66846 93.81480 37164 ft 517 kts 122°
2026-05-07 19:57 37.63691 93.89631 37181 ft 516 kts 122°
2026-05-07 19:58 37.60532 93.97772 37174 ft 516 kts 122°
2026-05-07 19:58 37.57389 94.05850 37173 ft 517 kts 122°
2026-05-07 19:59 37.54214 94.13992 37163 ft 517 kts 122°
2026-05-07 19:59 37.51032 94.22129 37149 ft 517 kts 122°
2026-05-07 20:00 37.47845 94.30259 37152 ft 518 kts 123°
2026-05-07 20:00 37.44644 94.38402 37153 ft 519 kts 123°
2026-05-07 20:01 37.41438 94.46535 37147 ft 519 kts 123°
2026-05-07 20:01 37.38225 94.54670 37128 ft 519 kts 123°
2026-05-07 20:02 37.35007 94.62796 37152 ft 519 kts 123°
2026-05-07 20:02 37.31802 94.70864 37133 ft 520 kts 123°
2026-05-07 20:03 37.28561 94.79003 37139 ft 520 kts 123°
2026-05-07 20:03 37.25315 94.87138 37144 ft 520 kts 123°
2026-05-07 20:04 37.22073 94.95243 37134 ft 520 kts 123°
2026-05-07 20:04 37.18820 95.03353 37148 ft 520 kts 123°
2026-05-07 20:05 37.15582 95.11408 37139 ft 521 kts 123°
2026-05-07 20:05 37.12316 95.19514 37142 ft 521 kts 123°
2026-05-07 20:06 37.09048 95.27609 37130 ft 520 kts 123°
2026-05-07 20:06 37.05772 95.35711 37133 ft 520 kts 123°
2026-05-07 20:07 37.02504 95.43789 37135 ft 520 kts 123°
2026-05-07 20:07 36.99226 95.51856 37142 ft 520 kts 122°
2026-05-07 20:08 36.96002 95.59966 37148 ft 521 kts 122°
2026-05-07 20:08 36.92810 95.68099 37141 ft 521 kts 122°
2026-05-07 20:09 36.89609 95.76233 37132 ft 522 kts 122°
2026-05-07 20:10 36.84790 95.88418 37146 ft 522 kts 122°
2026-05-07 20:10 36.81571 95.96545 37140 ft 522 kts 122°
2026-05-07 20:11 36.78349 96.04655 37143 ft 522 kts 122°
2026-05-07 20:11 36.75116 96.12754 37136 ft 522 kts 122°
2026-05-07 20:12 36.71913 96.20804 37141 ft 522 kts 122°
2026-05-07 20:12 36.68698 96.28908 37156 ft 522 kts 122°
2026-05-07 20:13 36.65483 96.37002 37148 ft 522 kts 122°
2026-05-07 20:13 36.62260 96.45099 37149 ft 522 kts 122°
2026-05-07 20:14 36.59039 96.53189 37148 ft 522 kts 122°
2026-05-07 20:14 36.55804 96.61268 37138 ft 522 kts 122°
2026-05-07 20:15 36.52593 96.69353 37160 ft 522 kts 122°
2026-05-07 20:15 36.49401 96.77454 37147 ft 522 kts 122°
2026-05-07 20:16 36.46211 96.85551 37138 ft 522 kts 122°
2026-05-07 20:16 36.43013 96.93642 37162 ft 522 kts 122°
2026-05-07 20:17 36.39805 97.01732 37159 ft 522 kts 122°
2026-05-07 20:17 36.36593 97.09814 37160 ft 522 kts 122°
2026-05-07 20:18 36.33394 97.17842 37179 ft 522 kts 122°
2026-05-07 20:18 36.30170 97.25916 37178 ft 523 kts 122°
2026-05-07 20:19 36.26940 97.33985 37189 ft 522 kts 122°
2026-05-07 20:19 36.23707 97.42048 37187 ft 522 kts 122°
2026-05-07 20:20 36.20471 97.50103 37189 ft 522 kts 122°
2026-05-07 20:20 36.17239 97.58152 37206 ft 522 kts 122°
2026-05-07 20:21 36.13998 97.66196 37215 ft 522 kts 121°
2026-05-07 20:21 36.10831 97.74293 37214 ft 523 kts 121°
2026-05-07 20:22 36.07701 97.82413 37233 ft 523 kts 121°
2026-05-07 20:22 36.04568 97.90525 37243 ft 523 kts 121°
2026-05-07 20:23 36.01421 97.98629 37239 ft 523 kts 121°
2026-05-07 20:23 35.98266 98.06723 37246 ft 523 kts 121°
2026-05-07 20:24 35.95113 98.14792 37257 ft 520 kts 121°
2026-05-07 20:24 35.91961 98.22827 37278 ft 521 kts 121°
2026-05-07 20:25 35.88794 98.30886 37281 ft 523 kts 121°
2026-05-07 20:25 35.85618 98.38958 37281 ft 524 kts 121°
2026-05-07 20:26 35.82430 98.47030 37273 ft 524 kts 121°
2026-05-07 20:26 35.79232 98.55104 37275 ft 524 kts 121°
2026-05-07 20:27 35.76034 98.63177 37283 ft 525 kts 121°
2026-05-07 20:27 35.72826 98.71245 37271 ft 525 kts 121°
2026-05-07 20:28 35.69632 98.79250 37268 ft 524 kts 121°
2026-05-07 20:28 35.66424 98.87282 37275 ft 522 kts 121°
2026-05-07 20:29 35.63211 98.95297 37274 ft 523 kts 121°
2026-05-07 20:29 35.59990 99.03310 37276 ft 523 kts 121°
2026-05-07 20:30 35.56760 99.11333 37273 ft 525 kts 121°
2026-05-07 20:30 35.53519 99.19363 37272 ft 525 kts 121°
2026-05-07 20:31 35.50273 99.27388 37288 ft 525 kts 121°
2026-05-07 20:31 35.47023 99.35404 37263 ft 525 kts 121°
2026-05-07 20:32 35.43770 99.43408 37264 ft 523 kts 122°
2026-05-07 20:32 35.40515 99.51388 37275 ft 523 kts 122°
2026-05-07 20:33 35.37255 99.59364 37272 ft 523 kts 122°
2026-05-07 20:33 35.33993 99.67327 37260 ft 523 kts 122°
2026-05-07 20:34 35.30730 99.75278 37241 ft 522 kts 122°
2026-05-07 20:34 35.27473 99.83188 37256 ft 520 kts 122°
2026-05-07 20:35 35.24220 99.91069 37264 ft 520 kts 122°
2026-05-07 20:35 35.20948 99.98987 37260 ft 522 kts 122°
2026-05-07 20:36 35.17679 100.06871 37251 ft 525 kts 122°
2026-05-07 20:36 35.14373 100.14831 37258 ft 526 kts 122°
2026-05-07 20:37 35.11053 100.22803 37252 ft 527 kts 122°
2026-05-07 20:37 35.07720 100.30793 37244 ft 528 kts 122°
2026-05-07 20:38 35.04379 100.38774 37220 ft 526 kts 122°
2026-05-07 20:38 35.01053 100.46707 37247 ft 524 kts 122°
2026-05-07 20:39 34.97735 100.54601 37246 ft 522 kts 122°
2026-05-07 20:39 34.94416 100.62468 37263 ft 522 kts 122°
2026-05-07 20:40 34.91654 100.69009 37256 ft 522 kts 122°
2026-05-07 20:40 34.88324 100.76884 37255 ft 523 kts 122°
2026-05-07 20:41 34.84983 100.84754 37266 ft 524 kts 122°
2026-05-07 20:41 34.81632 100.92633 37266 ft 525 kts 122°
2026-05-07 20:42 34.78272 101.00518 37262 ft 524 kts 122°
2026-05-07 20:42 34.74911 101.08389 37266 ft 525 kts 122°
2026-05-07 20:43 34.71537 101.16273 37251 ft 525 kts 122°
2026-05-07 20:43 34.68157 101.24142 37255 ft 524 kts 122°
2026-05-07 20:44 34.64783 101.31988 37253 ft 524 kts 122°
2026-05-07 20:44 34.61403 101.39832 37250 ft 523 kts 122°
2026-05-07 20:45 34.58025 101.47649 37271 ft 522 kts 122°
2026-05-07 20:45 34.54668 101.55399 37257 ft 522 kts 122°
2026-05-07 20:46 34.51287 101.63189 37263 ft 522 kts 122°
2026-05-07 20:46 34.47896 101.70980 37251 ft 522 kts 123°
2026-05-07 20:47 34.44501 101.78769 37271 ft 523 kts 123°
2026-05-07 20:47 34.41091 101.86575 37252 ft 525 kts 123°
2026-05-07 20:48 34.37665 101.94401 37280 ft 527 kts 123°
2026-05-07 20:48 34.34219 102.02251 37259 ft 528 kts 123°
2026-05-07 20:49 34.30763 102.10111 37255 ft 530 kts 123°
2026-05-07 20:49 34.27317 102.17947 37251 ft 531 kts 123°
2026-05-07 20:50 34.23836 102.25848 37271 ft 532 kts 123°
2026-05-07 20:50 34.20352 102.33744 37255 ft 532 kts 123°
2026-05-07 20:51 34.16871 102.41648 37250 ft 532 kts 123°
2026-05-07 20:51 34.13474 102.49557 37245 ft 533 kts 122°
2026-05-07 20:52 34.10078 102.57520 37254 ft 533 kts 122°
2026-05-07 20:52 34.06693 102.65442 37218 ft 533 kts 123°
2026-05-07 20:53 34.03269 102.73410 37237 ft 534 kts 123°
2026-05-07 20:53 33.99859 102.81325 37233 ft 534 kts 123°
2026-05-07 20:54 33.96414 102.89302 37232 ft 535 kts 123°
2026-05-07 20:54 33.92982 102.97229 37231 ft 535 kts 123°
2026-05-07 20:55 33.89532 103.05183 37234 ft 535 kts 123°
2026-05-07 20:55 33.86101 103.13073 37233 ft 534 kts 123°
2026-05-07 20:56 33.82646 103.21004 37222 ft 533 kts 123°
2026-05-07 20:56 33.79214 103.28850 37236 ft 532 kts 123°
2026-05-07 20:57 33.75770 103.36720 37240 ft 533 kts 123°
2026-05-07 20:57 33.72314 103.44607 37233 ft 533 kts 123°
2026-05-07 20:58 33.68847 103.52493 37245 ft 535 kts 123°
2026-05-07 20:58 33.65375 103.60373 37261 ft 535 kts 123°
2026-05-07 20:59 33.61893 103.68265 37279 ft 535 kts 123°
2026-05-07 20:59 33.58399 103.76151 37249 ft 534 kts 123°
2026-05-07 21:00 33.54901 103.84030 37248 ft 536 kts 123°
2026-05-07 21:00 33.51396 103.91928 37258 ft 535 kts 123°
2026-05-07 21:01 33.47918 103.99749 37247 ft 536 kts 124°
2026-05-07 21:01 33.44412 104.07619 37241 ft 536 kts 123°
2026-05-07 21:02 33.40898 104.15504 37230 ft 537 kts 124°
2026-05-07 21:02 33.37137 104.23130 37225 ft 522 kts 136°
2026-05-07 21:03 33.31907 104.28916 37245 ft 509 kts 154°
2026-05-07 21:03 33.28867 104.30986 37219 ft 497 kts 165°
2026-05-07 21:03 33.25703 104.32627 37266 ft 497 kts 166°
2026-05-07 21:04 33.19266 104.35884 37233 ft 506 kts 165°
2026-05-07 21:04 33.12813 104.39248 37222 ft 506 kts 165°
2026-05-07 21:05 33.06466 104.42625 37249 ft 495 kts 164°
2026-05-07 21:05 33.00149 104.46060 37253 ft 501 kts 164°
2026-05-07 21:06 32.93802 104.49453 37259 ft 505 kts 164°
2026-05-07 21:06 32.87361 104.52888 37236 ft 505 kts 164°
2026-05-07 21:07 32.80998 104.56253 37224 ft 494 kts 167°
2026-05-07 21:07 32.74496 104.58485 37252 ft 483 kts 178°
2026-05-07 21:08 32.67879 104.59264 37230 ft 473 kts 187°
2026-05-07 21:08 32.61318 104.59454 37244 ft 476 kts 187°
2026-05-07 21:09 32.54693 104.59736 37233 ft 477 kts 186°
2026-05-07 21:09 32.48067 104.60048 37246 ft 475 kts 186°
2026-05-07 21:10 32.41482 104.60358 37231 ft 469 kts 187°
2026-05-07 21:10 32.34948 104.60674 37253 ft 468 kts 186°
2026-05-07 21:11 32.28466 104.61019 37249 ft 468 kts 186°
2026-05-07 21:11 32.18673 104.61555 37240 ft 470 kts 186°
2026-05-07 21:12 32.12149 104.61916 37237 ft 471 kts 186°
2026-05-07 21:12 32.05573 104.62279 37227 ft 472 kts 186°
2026-05-07 21:13 31.99008 104.62643 37222 ft 472 kts 187°
2026-05-07 21:13 31.92481 104.63004 37222 ft 471 kts 187°
2026-05-07 21:14 31.85919 104.63373 37203 ft 471 kts 187°
2026-05-07 21:14 31.79411 104.63733 37201 ft 470 kts 187°
2026-05-07 21:15 31.72881 104.64040 37186 ft 467 kts 188°
2026-05-07 21:15 31.66375 104.64258 37188 ft 467 kts 188°
2026-05-07 21:16 31.59873 104.64490 37192 ft 467 kts 188°
2026-05-07 21:16 31.53422 104.64742 37174 ft 467 kts 187°
2026-05-07 21:17 31.46921 104.65002 37161 ft 467 kts 187°
2026-05-07 21:17 31.40413 104.65263 37171 ft 468 kts 187°
2026-05-07 21:18 31.33872 104.65524 37176 ft 469 kts 187°
2026-05-07 21:18 31.27357 104.65785 37174 ft 470 kts 187°
2026-05-07 21:19 31.20800 104.66050 37143 ft 471 kts 187°
2026-05-07 21:19 31.14280 104.66318 37163 ft 472 kts 187°
2026-05-07 21:20 31.07692 104.66586 37170 ft 472 kts 188°
2026-05-07 21:20 31.01132 104.67072 37180 ft 476 kts 184°
2026-05-07 21:21 30.94519 104.67841 37120 ft 477 kts 184°
2026-05-07 21:21 30.87903 104.68598 37150 ft 477 kts 185°
2026-05-07 21:22 30.81316 104.69326 37170 ft 478 kts 185°
2026-05-07 21:22 30.74666 104.70064 37167 ft 480 kts 184°
2026-05-07 21:23 30.68002 104.70822 37164 ft 481 kts 184°
2026-05-07 21:23 30.61369 104.71585 37157 ft 481 kts 185°
2026-05-07 21:24 30.54730 104.72330 37157 ft 482 kts 185°
2026-05-07 21:24 30.48045 104.73053 37162 ft 482 kts 185°
2026-05-07 21:25 30.41357 104.73784 37151 ft 482 kts 185°
2026-05-07 21:25 30.34673 104.74529 37158 ft 482 kts 185°
2026-05-07 21:26 30.27990 104.75278 37156 ft 482 kts 185°
2026-05-07 21:26 30.21356 104.76019 37158 ft 482 kts 185°
2026-05-07 21:27 30.14676 104.76766 37161 ft 482 kts 185°
2026-05-07 21:27 30.08000 104.77517 37151 ft 481 kts 185°
2026-05-07 21:28 30.01336 104.78262 37152 ft 481 kts 185°
2026-05-07 21:28 29.94677 104.78982 37154 ft 481 kts 185°
2026-05-07 21:29 29.88012 104.79697 37148 ft 481 kts 185°
2026-05-07 21:29 29.81352 104.80428 37138 ft 481 kts 185°
2026-05-07 21:30 29.75819 104.81041 37140 ft 481 kts 185°
2026-05-07 21:30 29.69164 104.81777 37147 ft 480 kts 185°
2026-05-07 21:31 29.62503 104.82513 37141 ft 481 kts 185°
2026-05-07 21:31 29.55842 104.83250 37123 ft 481 kts 185°
2026-05-07 21:32 29.49185 104.83988 37129 ft 481 kts 185°
2026-05-07 21:32 29.42523 104.84732 37132 ft 481 kts 185°
2026-05-07 21:33 29.35863 104.85601 37111 ft 487 kts 180°
2026-05-07 21:33 29.29240 104.87732 37129 ft 503 kts 168°
2026-05-07 21:34 29.22791 104.91002 37116 ft 508 kts 165°
2026-05-07 21:34 29.16353 104.94346 37117 ft 507 kts 166°
2026-05-07 21:35 29.09894 104.97595 37124 ft 507 kts 166°
2026-05-07 21:35 29.03424 105.00849 37119 ft 508 kts 166°
2026-05-07 21:36 28.96960 105.04125 37085 ft 508 kts 166°
2026-05-07 21:36 28.90504 105.07363 37117 ft 507 kts 166°
2026-05-07 21:37 28.84031 105.10598 37118 ft 507 kts 166°
2026-05-07 21:37 28.77609 105.13828 37115 ft 510 kts 164°
2026-05-07 21:38 28.71286 105.17570 37122 ft 513 kts 162°
2026-05-07 21:38 28.64985 105.21405 37095 ft 513 kts 161°
2026-05-07 21:39 28.58679 105.25235 37107 ft 514 kts 161°
2026-05-07 21:39 28.52361 105.29056 37117 ft 515 kts 162°
2026-05-07 21:40 28.46029 105.32876 37128 ft 515 kts 161°
2026-05-07 21:40 28.39677 105.36701 37117 ft 516 kts 162°
2026-05-07 21:41 28.33364 105.40490 37106 ft 516 kts 161°
2026-05-07 21:41 28.27022 105.44307 37128 ft 516 kts 161°
2026-05-07 21:42 28.20669 105.48135 37143 ft 518 kts 161°
2026-05-07 21:42 28.14304 105.51962 37130 ft 516 kts 162°
2026-05-07 21:43 28.07923 105.55549 37151 ft 503 kts 169°
2026-05-07 21:43 28.04671 105.56850 37114 ft 490 kts 174°
2026-05-07 21:43 28.01413 105.57871 37123 ft 483 kts 178°
2026-05-07 21:44 27.94846 105.59077 37122 ft 473 kts 184°
2026-05-07 21:44 27.88379 105.60017 37146 ft 466 kts 184°
2026-05-07 21:45 27.82003 105.61205 37122 ft 468 kts 176°
2026-05-07 21:45 27.75853 105.63778 37129 ft 475 kts 166°
2026-05-07 21:46 27.70006 105.67344 37160 ft 477 kts 162°
2026-05-07 21:46 27.64198 105.71116 37153 ft 487 kts 159°
2026-05-07 21:47 27.58094 105.74482 37151 ft 492 kts 165°
2026-05-07 21:47 27.51749 105.77545 37166 ft 502 kts 164°
2026-05-07 21:48 27.45314 105.80858 37196 ft 515 kts 162°
2026-05-07 21:48 27.38811 105.84370 37188 ft 519 kts 162°
2026-05-07 21:49 27.32312 105.87896 37174 ft 518 kts 162°
2026-05-07 21:49 27.25812 105.91397 37174 ft 517 kts 162°
2026-05-07 21:50 27.19331 105.94874 37180 ft 516 kts 162°
2026-05-07 21:50 27.12857 105.98346 37169 ft 515 kts 162°
2026-05-07 21:51 27.06538 106.02066 37180 ft 524 kts 152°
2026-05-07 21:51 27.00987 106.07506 37178 ft 538 kts 136°
2026-05-07 21:52 26.96413 106.14223 37173 ft 543 kts 131°
2026-05-07 21:52 26.91956 106.21052 37196 ft 543 kts 131°
2026-05-07 21:53 26.87443 106.27831 37173 ft 543 kts 132°
2026-05-07 21:53 26.82882 106.34577 37187 ft 543 kts 132°
2026-05-07 21:54 26.78309 106.41314 37185 ft 542 kts 132°
2026-05-07 21:54 26.73754 106.48028 37191 ft 542 kts 131°
2026-05-07 21:55 26.69197 106.54739 37200 ft 541 kts 132°
2026-05-07 21:55 26.64644 106.61436 37208 ft 541 kts 132°
2026-05-07 21:56 26.60091 106.68124 37211 ft 540 kts 132°
2026-05-07 21:56 26.55539 106.74802 37212 ft 540 kts 132°
2026-05-07 21:57 26.50829 106.81298 37216 ft 535 kts 139°
2026-05-07 21:57 26.45537 106.87084 37188 ft 532 kts 142°
2026-05-07 21:58 26.40212 106.92822 37208 ft 532 kts 141°
2026-05-07 21:58 26.34962 106.98573 37200 ft 532 kts 140°
2026-05-07 21:59 26.29696 107.04356 37202 ft 531 kts 141°
2026-05-07 21:59 26.24426 107.10136 37200 ft 532 kts 140°
2026-05-07 22:00 26.19149 107.15917 37212 ft 532 kts 141°
2026-05-07 22:00 26.13860 107.21692 37190 ft 532 kts 141°
2026-05-07 22:01 26.08579 107.27466 37185 ft 531 kts 141°
2026-05-07 22:01 26.03316 107.33228 37176 ft 531 kts 141°
2026-05-07 22:02 25.98055 107.38979 37172 ft 530 kts 141°
2026-05-07 22:02 25.92794 107.44703 37181 ft 529 kts 141°
2026-05-07 22:03 25.87542 107.50428 37177 ft 528 kts 141°
2026-05-07 22:03 25.82302 107.56140 37152 ft 528 kts 141°
2026-05-07 22:04 25.77066 107.61845 37125 ft 527 kts 140°
2026-05-07 22:04 25.71837 107.67530 37136 ft 526 kts 141°
2026-05-07 22:05 25.66649 107.73177 37143 ft 525 kts 140°
2026-05-07 22:05 25.61455 107.78862 37123 ft 524 kts 140°
2026-05-07 22:06 25.56274 107.84543 37139 ft 524 kts 140°
2026-05-07 22:06 25.51080 107.90227 37131 ft 525 kts 140°
2026-05-07 22:07 25.45382 107.95054 37115 ft 509 kts 160°
2026-05-07 22:07 25.38742 107.97338 37095 ft 490 kts 180°
2026-05-07 22:08 25.31999 107.98045 37104 ft 494 kts 181°
2026-05-07 22:08 25.25109 107.98782 37083 ft 499 kts 180°
2026-05-07 22:09 25.18185 107.99605 37087 ft 501 kts 180°
2026-05-07 22:09 25.11257 108.00462 37059 ft 500 kts 180°
2026-05-07 22:10 25.04349 108.01307 37061 ft 499 kts 180°
2026-05-07 22:10 24.97467 108.02146 37053 ft 497 kts 180°
2026-05-07 22:11 24.90635 108.02979 37058 ft 495 kts 180°
2026-05-07 22:11 24.83795 108.03810 37046 ft 494 kts 180°
2026-05-07 22:12 24.76959 108.04640 37037 ft 494 kts 179°
2026-05-07 22:12 24.70124 108.05472 37042 ft 494 kts 179°
2026-05-07 22:13 24.63295 108.06306 37034 ft 494 kts 179°
2026-05-07 22:13 24.56458 108.07142 37034 ft 494 kts 179°
2026-05-07 22:14 24.49618 108.07963 37021 ft 494 kts 179°
2026-05-07 22:14 24.42779 108.08777 37025 ft 494 kts 180°
2026-05-07 22:15 24.35935 108.09590 37026 ft 495 kts 180°
2026-05-07 22:15 24.29090 108.10421 37033 ft 495 kts 179°
2026-05-07 22:16 24.22243 108.11260 37033 ft 495 kts 179°
2026-05-07 22:16 24.15398 108.12095 37022 ft 495 kts 179°
2026-05-07 22:17 24.09706 108.12789 37027 ft 495 kts 179°
2026-05-07 22:17 24.02867 108.13623 37045 ft 495 kts 179°
2026-05-07 22:18 23.92608 108.14877 37028 ft 493 kts 179°
2026-05-07 22:18 23.89264 108.15743 37006 ft 500 kts 163°
2026-05-07 22:19 23.86218 108.17630 37014 ft 511 kts 146°
2026-05-07 22:19 23.83730 108.20439 37032 ft 521 kts 129°
2026-05-07 22:19 23.81991 108.23930 37032 ft 528 kts 113°
2026-05-07 22:19 23.81140 108.27828 37010 ft 532 kts 96°
2026-05-07 22:20 23.80931 108.31869 37041 ft 533 kts 94°
2026-05-07 22:20 23.80618 108.39989 37032 ft 536 kts 94°
2026-05-07 22:21 23.80235 108.48133 37018 ft 538 kts 95°
2026-05-07 22:21 23.79775 108.56284 37025 ft 538 kts 95°
2026-05-07 22:22 23.79296 108.64382 37019 ft 538 kts 95°
2026-05-07 22:22 23.78817 108.72526 37017 ft 537 kts 95°
2026-05-07 22:23 23.78340 108.80654 37012 ft 536 kts 95°
2026-05-07 22:23 23.77862 108.88756 37016 ft 535 kts 95°
2026-05-07 22:24 23.77382 108.96861 37016 ft 534 kts 95°
2026-05-07 22:24 23.76905 109.04956 37021 ft 534 kts 95°
2026-05-07 22:25 23.76402 109.13042 37018 ft 534 kts 96°
2026-05-07 22:25 23.75155 109.21002 36995 ft 532 kts 105°
2026-05-07 22:26 23.73470 109.28873 37010 ft 533 kts 105°
2026-05-07 22:26 23.71826 109.36771 37005 ft 535 kts 104°
2026-05-07 22:27 23.70228 109.44712 37001 ft 536 kts 104°
2026-05-07 22:27 23.68634 109.52604 36989 ft 536 kts 104°
2026-05-07 22:28 23.67027 109.60552 37002 ft 536 kts 105°
2026-05-07 22:28 23.65386 109.68484 37004 ft 536 kts 105°
2026-05-07 22:29 23.63708 109.76404 36991 ft 536 kts 105°
2026-05-07 22:29 23.62044 109.84317 37002 ft 535 kts 105°
2026-05-07 22:30 23.60400 109.92230 37000 ft 535 kts 105°
2026-05-07 22:30 23.58768 110.00139 37000 ft 535 kts 105°
2026-05-07 22:31 23.57129 110.08051 36981 ft 535 kts 105°
2026-05-07 22:31 23.55493 110.15868 36975 ft 522 kts 105°
2026-05-07 22:32 23.53896 110.23530 36969 ft 515 kts 105°
2026-05-07 22:32 23.52341 110.31096 36973 ft 509 kts 105°
2026-05-07 22:33 23.50763 110.38586 36970 ft 505 kts 106°
2026-05-07 22:33 23.49213 110.46015 36969 ft 500 kts 105°
2026-05-07 22:34 23.47718 110.53383 36969 ft 497 kts 105°
2026-05-07 22:34 23.46248 110.60702 36976 ft 493 kts 105°
2026-05-07 22:35 23.44793 110.67979 36976 ft 490 kts 105°
2026-05-07 22:35 23.43305 110.75147 36982 ft 488 kts 106°
2026-05-07 22:36 23.41748 110.82316 36975 ft 485 kts 106°
2026-05-07 22:36 23.40223 110.89453 36975 ft 482 kts 106°
2026-05-07 22:37 23.38733 110.96550 36976 ft 480 kts 105°
2026-05-07 22:37 23.37256 111.03618 36971 ft 478 kts 105°
2026-05-07 22:38 23.35792 111.10654 36973 ft 476 kts 106°
2026-05-07 22:38 23.34295 111.17656 36972 ft 474 kts 106°
2026-05-07 22:39 23.32832 111.24638 36967 ft 473 kts 105°
2026-05-07 22:39 23.31411 111.31610 36969 ft 471 kts 105°
2026-05-07 22:40 23.30004 111.38558 36971 ft 469 kts 105°
2026-05-07 22:40 23.28614 111.45469 36968 ft 467 kts 105°
2026-05-07 22:41 23.27200 111.52368 36968 ft 466 kts 105°
2026-05-07 22:41 23.25732 111.59233 36967 ft 465 kts 106°
2026-05-07 22:42 23.24263 111.66072 36965 ft 464 kts 106°
2026-05-07 22:42 23.22834 111.72898 36969 ft 462 kts 105°
2026-05-07 22:43 23.21427 111.79649 36975 ft 461 kts 106°
2026-05-07 22:43 23.19967 111.86434 36967 ft 460 kts 106°
2026-05-07 22:44 23.18518 111.93199 36965 ft 459 kts 106°
2026-05-07 22:44 23.17104 111.99953 36969 ft 457 kts 106°
2026-05-07 22:45 23.15701 112.06679 36952 ft 456 kts 107°
2026-05-07 22:45 23.14281 112.13434 36380 ft 465 kts 105°
2026-05-07 22:45 23.13559 112.16906 35570 ft 480 kts 105°
2026-05-07 22:46 23.12825 112.20471 35275 ft 487 kts 105°
2026-05-07 22:46 23.12080 112.24088 35124 ft 491 kts 105°
2026-05-07 22:46 23.11325 112.27719 34986 ft 495 kts 105°
2026-05-07 22:47 23.09662 112.34997 34980 ft 499 kts 111°
2026-05-07 22:47 23.06831 112.41868 34936 ft 499 kts 122°
2026-05-07 22:48 23.03496 112.48467 34949 ft 497 kts 122°
2026-05-07 22:48 23.00229 112.55023 34961 ft 496 kts 121°
2026-05-07 22:49 22.96986 112.61673 34949 ft 495 kts 121°
2026-05-07 22:49 22.93787 112.68279 34956 ft 493 kts 121°
2026-05-07 22:50 22.90615 112.74822 34953 ft 493 kts 121°
2026-05-07 22:50 22.87421 112.81395 34948 ft 492 kts 121°
2026-05-07 22:51 22.84235 112.87939 34951 ft 491 kts 121°
2026-05-07 22:51 22.81044 112.94484 34959 ft 491 kts 121°
2026-05-07 22:52 22.77850 113.01030 34947 ft 491 kts 121°
2026-05-07 22:52 22.74655 113.07571 34947 ft 490 kts 121°
2026-05-07 22:53 22.71463 113.14092 34868 ft 492 kts 121°
2026-05-07 22:53 22.69851 113.17379 34308 ft 497 kts 121°
2026-05-07 22:53 22.68210 113.20733 33415 ft 513 kts 120°
2026-05-07 22:53 22.66538 113.24169 33180 ft 517 kts 120°
2026-05-07 22:54 22.64845 113.27642 33034 ft 528 kts 120°
2026-05-07 22:54 22.61363 113.34760 32959 ft 538 kts 120°
2026-05-07 22:55 22.57853 113.41900 32938 ft 532 kts 120°
2026-05-07 22:55 22.54413 113.48881 32941 ft 522 kts 120°
2026-05-07 22:56 22.50986 113.55824 32962 ft 526 kts 120°
2026-05-07 22:56 22.47553 113.62800 32952 ft 529 kts 120°
2026-05-07 22:57 22.44099 113.69819 32953 ft 528 kts 120°
2026-05-07 22:57 22.40659 113.76833 32964 ft 527 kts 119°
2026-05-07 22:58 22.37174 113.83788 32973 ft 524 kts 122°
2026-05-07 22:58 22.32927 113.90185 32967 ft 523 kts 134°
2026-05-07 22:59 22.28006 113.95838 32965 ft 523 kts 135°
2026-05-07 22:59 22.23028 114.01649 32960 ft 526 kts 134°
2026-05-07 23:00 22.18413 114.07668 32966 ft 522 kts 130°
2026-05-07 23:00 22.13913 114.13811 32965 ft 521 kts 130°
2026-05-07 23:01 22.09440 114.19953 32963 ft 520 kts 130°
2026-05-07 23:01 22.04973 114.26073 32960 ft 519 kts 130°
2026-05-07 23:02 22.00513 114.32189 32961 ft 519 kts 130°
2026-05-07 23:02 21.96053 114.38305 32963 ft 519 kts 130°
2026-05-07 23:03 21.91587 114.44421 32968 ft 520 kts 130°
2026-05-07 23:03 21.87108 114.50545 32968 ft 521 kts 130°
2026-05-07 23:04 21.82619 114.56678 32965 ft 522 kts 130°
2026-05-07 23:04 21.78150 114.62776 32968 ft 522 kts 130°
2026-05-07 23:05 21.73654 114.68903 32964 ft 522 kts 130°
2026-05-07 23:05 21.69154 114.75030 32963 ft 522 kts 130°
2026-05-07 23:06 21.65386 114.80156 32965 ft 521 kts 130°
2026-05-07 23:06 21.60919 114.86226 32962 ft 521 kts 130°
2026-05-07 23:07 21.56420 114.92334 32963 ft 521 kts 130°
2026-05-07 23:07 21.51924 114.98434 32961 ft 521 kts 130°
2026-05-07 23:08 21.47428 115.04528 32960 ft 521 kts 130°
2026-05-07 23:08 21.42929 115.10624 32964 ft 521 kts 130°
2026-05-07 23:09 21.38424 115.16729 32967 ft 521 kts 130°
2026-05-07 23:09 21.33923 115.22834 32960 ft 522 kts 130°
2026-05-07 23:10 21.29428 115.28952 32965 ft 522 kts 130°
2026-05-07 23:10 21.24977 115.35040 32936 ft 512 kts 127°
2026-05-07 23:11 21.21279 115.41513 32961 ft 507 kts 121°
2026-05-07 23:11 21.17807 115.48027 32953 ft 500 kts 121°
2026-05-07 23:12 21.14370 115.54464 32952 ft 495 kts 122°
2026-05-07 23:12 21.10957 115.60839 32953 ft 491 kts 122°
2026-05-07 23:13 21.07571 115.67171 32956 ft 488 kts 122°
2026-05-07 23:13 21.04227 115.73420 32957 ft 486 kts 122°
2026-05-07 23:14 21.00872 115.79686 32955 ft 484 kts 122°
2026-05-07 23:14 20.97535 115.85921 32958 ft 482 kts 122°
2026-05-07 23:15 20.94204 115.92146 32960 ft 481 kts 122°
2026-05-07 23:15 20.90898 115.98354 32962 ft 480 kts 122°
2026-05-07 23:16 20.87655 116.04607 32984 ft 488 kts 116°
2026-05-07 23:16 20.86030 116.07836 32959 ft 499 kts 122°
2026-05-07 23:16 20.83880 116.10785 32950 ft 508 kts 136°
2026-05-07 23:16 20.81059 116.13090 32967 ft 514 kts 151°
2026-05-07 23:17 20.77878 116.14838 32964 ft 516 kts 153°
2026-05-07 23:17 20.71622 116.18727 32962 ft 521 kts 148°
2026-05-07 23:18 20.65544 116.22913 32951 ft 519 kts 147°
2026-05-07 23:18 20.59489 116.27095 32950 ft 517 kts 147°
2026-05-07 23:19 20.53424 116.31217 32954 ft 517 kts 148°
2026-05-07 23:19 20.47339 116.35322 32951 ft 517 kts 148°
2026-05-07 23:20 20.41292 116.39397 32950 ft 518 kts 148°
2026-05-07 23:20 20.35196 116.43506 32952 ft 519 kts 148°
2026-05-07 23:21 20.29091 116.47618 32942 ft 519 kts 148°
2026-05-07 23:21 20.22983 116.51730 32948 ft 519 kts 148°
2026-05-07 23:22 20.16868 116.55841 32948 ft 520 kts 148°
2026-05-07 23:22 20.10751 116.59951 32948 ft 520 kts 148°
2026-05-07 23:23 20.04635 116.64057 32950 ft 520 kts 148°
2026-05-07 23:23 19.98836 116.68636 32948 ft 520 kts 138°
2026-05-07 23:24 19.93834 116.74158 32950 ft 519 kts 131°
2026-05-07 23:24 19.89003 116.79863 32942 ft 519 kts 131°
2026-05-07 23:25 19.84147 116.85546 32946 ft 519 kts 132°
2026-05-07 23:25 19.79266 116.91186 32945 ft 519 kts 133°
2026-05-07 23:26 19.74400 116.96777 32941 ft 519 kts 133°
2026-05-07 23:26 19.69518 117.02411 32943 ft 518 kts 132°
2026-05-07 23:27 19.62208 117.10857 32939 ft 518 kts 133°
2026-05-07 23:27 19.57326 117.16488 32937 ft 518 kts 132°
2026-05-07 23:28 19.52449 117.22105 32940 ft 517 kts 132°
2026-05-07 23:28 19.47569 117.27711 32939 ft 517 kts 133°
2026-05-07 23:29 19.42690 117.33308 32940 ft 517 kts 133°
2026-05-07 23:29 19.37816 117.38908 32937 ft 517 kts 133°
2026-05-07 23:30 19.32940 117.44508 32940 ft 517 kts 133°
2026-05-07 23:30 19.28061 117.50104 32935 ft 517 kts 133°
2026-05-07 23:31 19.23177 117.55700 32936 ft 518 kts 133°
2026-05-07 23:31 19.18286 117.61300 32934 ft 518 kts 133°
2026-05-07 23:32 19.13433 117.66855 32932 ft 518 kts 133°
2026-05-07 23:32 19.08543 117.72452 32932 ft 518 kts 132°
2026-05-07 23:33 19.03653 117.78043 32931 ft 518 kts 133°
2026-05-07 23:33 18.98745 117.83617 32928 ft 518 kts 133°
2026-05-07 23:34 18.93836 117.89177 32931 ft 518 kts 133°
2026-05-07 23:34 18.88950 117.94761 32932 ft 518 kts 131°
2026-05-07 23:35 18.84067 118.00357 32923 ft 518 kts 132°
2026-05-07 23:35 18.79172 118.05916 32927 ft 517 kts 132°
2026-05-07 23:36 18.74267 118.11471 32926 ft 516 kts 132°
2026-05-07 23:36 18.69371 118.17016 32928 ft 516 kts 132°
2026-05-07 23:37 18.64506 118.22523 32925 ft 515 kts 132°
2026-05-07 23:37 18.59621 118.28051 32927 ft 515 kts 132°
2026-05-07 23:38 18.54737 118.33572 32924 ft 515 kts 132°
2026-05-07 23:38 18.49852 118.39089 32926 ft 515 kts 132°
2026-05-07 23:39 18.44967 118.44601 32919 ft 514 kts 132°
2026-05-07 23:39 18.40083 118.50107 32922 ft 514 kts 132°
2026-05-07 23:40 18.35204 118.55603 32921 ft 514 kts 132°
2026-05-07 23:40 18.30325 118.61094 32919 ft 514 kts 132°
2026-05-07 23:41 18.25443 118.66583 32921 ft 514 kts 132°
2026-05-07 23:41 18.20561 118.72068 32919 ft 514 kts 132°
2026-05-07 23:42 18.15675 118.77553 32919 ft 514 kts 132°
2026-05-07 23:42 18.10787 118.83036 32912 ft 514 kts 132°
2026-05-07 23:43 18.05903 118.88511 32920 ft 513 kts 132°
2026-05-07 23:43 18.00925 118.93881 32913 ft 513 kts 137°
2026-05-07 23:44 17.95201 118.98354 32919 ft 514 kts 148°
2026-05-07 23:44 17.88937 119.01978 32911 ft 513 kts 151°
2026-05-07 23:45 17.82647 119.05526 32910 ft 513 kts 151°
2026-05-07 23:45 17.76382 119.09115 32911 ft 513 kts 150°
2026-05-07 23:46 17.70134 119.12730 32914 ft 513 kts 150°
2026-05-07 23:46 17.63927 119.16328 32909 ft 513 kts 150°
2026-05-07 23:47 17.57670 119.19948 32909 ft 513 kts 150°
2026-05-07 23:47 17.51418 119.23558 32909 ft 513 kts 150°
2026-05-07 23:48 17.45166 119.27165 32910 ft 513 kts 150°
2026-05-07 23:48 17.38913 119.30770 32905 ft 513 kts 150°
2026-05-07 23:49 17.32662 119.34371 32907 ft 512 kts 150°
2026-05-07 23:49 17.26415 119.37967 32907 ft 512 kts 150°
2026-05-07 23:50 17.20171 119.41558 32907 ft 512 kts 150°
2026-05-07 23:50 17.13915 119.45154 32906 ft 512 kts 150°
2026-05-07 23:51 17.07664 119.48744 32910 ft 513 kts 150°
2026-05-07 23:51 17.02468 119.51726 32910 ft 513 kts 150°
2026-05-07 23:52 16.96206 119.55308 32907 ft 513 kts 151°
2026-05-07 23:52 16.89947 119.58885 32907 ft 513 kts 151°
2026-05-07 23:53 16.83697 119.62464 32907 ft 513 kts 151°
2026-05-07 23:53 16.77442 119.66045 32907 ft 513 kts 151°
2026-05-07 23:54 16.71188 119.69622 32908 ft 512 kts 151°
2026-05-07 23:54 16.64933 119.73196 32910 ft 512 kts 151°
2026-05-07 23:55 16.58686 119.76762 32910 ft 512 kts 151°
2026-05-07 23:55 16.52430 119.80332 32909 ft 512 kts 151°
2026-05-07 23:56 16.46184 119.83892 32912 ft 512 kts 151°
2026-05-07 23:56 16.39977 119.87428 32910 ft 512 kts 151°
2026-05-07 23:57 16.33728 119.90986 32909 ft 511 kts 151°
2026-05-07 23:57 16.27486 119.94526 32912 ft 511 kts 151°
2026-05-07 23:58 16.21238 119.98071 32917 ft 511 kts 151°
2026-05-07 23:58 16.15004 120.01614 32918 ft 511 kts 151°
2026-05-07 23:59 16.08756 120.05164 32914 ft 511 kts 151°
2026-05-07 23:59 16.05635 120.06936 32517 ft 516 kts 151°
2026-05-07 23:59 16.02439 120.08749 31423 ft 526 kts 151°
2026-05-08 00:00 15.99230 120.10570 30489 ft 524 kts 151°
2026-05-08 00:00 15.96041 120.12380 29736 ft 517 kts 151°
2026-05-08 00:00 15.92902 120.14161 28904 ft 511 kts 151°
2026-05-08 00:00 15.89839 120.15897 28164 ft 505 kts 151°
2026-05-08 00:01 15.86738 120.17655 27463 ft 499 kts 151°
2026-05-08 00:01 15.83745 120.19350 26775 ft 493 kts 151°
2026-05-08 00:01 15.80751 120.21046 26099 ft 488 kts 151°
2026-05-08 00:01 15.77780 120.22728 25414 ft 484 kts 152°
2026-05-08 00:02 15.74835 120.24396 24728 ft 480 kts 152°
2026-05-08 00:02 15.71918 120.26048 24050 ft 476 kts 152°
2026-05-08 00:02 15.69015 120.27681 23353 ft 473 kts 153°
2026-05-08 00:02 15.66135 120.29300 22590 ft 469 kts 153°
2026-05-08 00:03 15.63281 120.30897 21908 ft 463 kts 153°
2026-05-08 00:03 15.60464 120.32480 21252 ft 458 kts 152°
2026-05-08 00:03 15.57689 120.34055 20630 ft 453 kts 152°
2026-05-08 00:03 15.54940 120.35618 19984 ft 448 kts 152°
2026-05-08 00:04 15.52215 120.37149 19334 ft 444 kts 152°
2026-05-08 00:04 15.49510 120.38665 18711 ft 440 kts 152°
2026-05-08 00:04 15.46836 120.40170 18094 ft 435 kts 152°
2026-05-08 00:04 15.44182 120.41667 17407 ft 432 kts 152°
2026-05-08 00:05 15.41558 120.43140 16778 ft 426 kts 152°
2026-05-08 00:05 15.38946 120.44570 16142 ft 423 kts 153°
2026-05-08 00:05 15.36330 120.45918 15548 ft 419 kts 154°
2026-05-08 00:05 15.33729 120.47235 14984 ft 414 kts 154°
2026-05-08 00:06 15.31148 120.48544 14446 ft 410 kts 154°
2026-05-08 00:06 15.28618 120.49838 14023 ft 402 kts 154°
2026-05-08 00:06 15.26162 120.51105 13397 ft 398 kts 154°
2026-05-08 00:06 15.23670 120.52400 12577 ft 400 kts 153°
2026-05-08 00:07 15.21205 120.53691 12057 ft 394 kts 153°
2026-05-08 00:07 15.18780 120.54961 11591 ft 387 kts 153°
2026-05-08 00:07 15.16398 120.56206 11132 ft 381 kts 154°
2026-05-08 00:07 15.14063 120.57428 10861 ft 369 kts 154°
2026-05-08 00:08 15.11812 120.58602 10699 ft 355 kts 154°
2026-05-08 00:08 15.09685 120.59709 10512 ft 330 kts 154°
2026-05-08 00:08 15.07706 120.60732 10380 ft 307 kts 154°
2026-05-08 00:08 15.05856 120.61687 10242 ft 286 kts 155°
2026-05-08 00:09 15.04138 120.62574 10119 ft 266 kts 155°
2026-05-08 00:09 15.02536 120.63404 9983 ft 255 kts 155°
2026-05-08 00:09 15.00892 120.64260 9747 ft 273 kts 154°
2026-05-08 00:09 14.99174 120.65167 9428 ft 279 kts 154°
2026-05-08 00:10 14.97460 120.66072 9089 ft 273 kts 154°
2026-05-08 00:10 14.95803 120.66942 8771 ft 262 kts 154°
2026-05-08 00:10 14.94201 120.67778 8461 ft 253 kts 154°
2026-05-08 00:10 14.92625 120.68599 8196 ft 259 kts 154°
2026-05-08 00:11 14.90982 120.69462 7938 ft 271 kts 154°
2026-05-08 00:11 14.89302 120.70349 7606 ft 269 kts 154°
2026-05-08 00:11 14.87656 120.71213 7288 ft 260 kts 154°
2026-05-08 00:11 14.86076 120.72040 6988 ft 250 kts 154°
2026-05-08 00:12 14.84553 120.72833 6710 ft 246 kts 154°
2026-05-08 00:12 14.82976 120.73659 6466 ft 260 kts 154°
2026-05-08 00:12 14.81342 120.74523 6134 ft 265 kts 154°
2026-05-08 00:12 14.79719 120.75380 5815 ft 257 kts 154°
2026-05-08 00:13 14.78178 120.76192 5509 ft 247 kts 154°
2026-05-08 00:13 14.76663 120.76990 5239 ft 243 kts 154°
2026-05-08 00:13 14.75145 120.77793 4996 ft 249 kts 153°
2026-05-08 00:13 14.73570 120.78623 4703 ft 257 kts 153°
2026-05-08 00:14 14.71974 120.79455 4402 ft 257 kts 153°
2026-05-08 00:14 14.70387 120.80272 4089 ft 254 kts 154°
2026-05-08 00:14 14.68819 120.81083 3787 ft 250 kts 150°
2026-05-08 00:14 14.67532 120.82243 3550 ft 244 kts 130°
2026-05-08 00:15 14.66464 120.83560 3421 ft 232 kts 133°
2026-05-08 00:15 14.65441 120.84756 3295 ft 212 kts 134°
2026-05-08 00:15 14.64568 120.85909 3239 ft 197 kts 123°
2026-05-08 00:15 14.63777 120.87020 3134 ft 189 kts 127°
2026-05-08 00:16 14.62897 120.88061 3083 ft 193 kts 130°
2026-05-08 00:16 14.61993 120.89063 2887 ft 187 kts 130°
2026-05-08 00:16 14.61158 120.90004 2768 ft 169 kts 129°
2026-05-08 00:16 14.60375 120.90906 2730 ft 173 kts 129°
2026-05-08 00:17 14.59572 120.91838 2719 ft 174 kts 129°
2026-05-08 00:17 14.58763 120.92770 2539 ft 172 kts 130°
2026-05-08 00:17 14.58000 120.93676 2346 ft 162 kts 127°
2026-05-08 00:17 14.57305 120.94571 2264 ft 161 kts 127°
2026-05-08 00:18 14.56582 120.95467 2035 ft 165 kts 129°
2026-05-08 00:18 14.55876 120.96389 1776 ft 163 kts 126°
2026-05-08 00:18 14.55188 120.97323 1415 ft 163 kts 127°
2026-05-08 00:18 14.54443 120.98233 991 ft 166 kts 131°
2026-05-08 00:19 14.53662 120.99048 633 ft 154 kts 134°
2026-05-08 00:19 14.52933 120.99798 313 ft 144 kts 133°
2026-05-08 00:19 14.52244 121.00519 107 ft 136 kts 133°
2026-05-08 00:19 14.51632 121.01163 64 ft 113 kts 136°
2026-05-08 00:20 14.51165 121.01643 67 ft 70 kts 135°
2026-05-08 00:20 14.51052 121.01762 69 ft 10 kts 127°
2026-05-08 00:20 14.51038 121.01827 70 ft 6 kts 73°
2026-05-08 00:20 14.51058 121.01868 66 ft 7 kts 61°
2026-05-08 00:21 14.51084 121.01912 63 ft 5 kts 49°
2026-05-08 00:21 14.51116 121.01918 64 ft 5 kts 344°
2026-05-08 00:21 14.51152 121.01898 65 ft 6 kts 326°
2026-05-08 00:21 14.51189 121.01865 68 ft 8 kts 316°
2026-05-08 00:22 14.51234 121.01820 65 ft 10 kts 315°
2026-05-08 00:22 14.51286 121.01763 65 ft 12 kts 314°
2026-05-08 00:22 14.51349 121.01699 66 ft 14 kts 315°
2026-05-08 00:22 14.51421 121.01626 64 ft 15 kts 315°
2026-05-08 00:23 14.51499 121.01545 65 ft 17 kts 315°
2026-05-08 00:23 14.51584 121.01456 65 ft 18 kts 315°
2026-05-08 00:23 14.51676 121.01361 67 ft 19 kts 315°
2026-05-08 00:23 14.51770 121.01264 65 ft 19 kts 315°
2026-05-08 00:24 14.51849 121.01183 65 ft 8 kts 315°
2026-05-08 00:24 14.51873 121.01170 74 ft 2 kts
2026-05-08 00:24 14.51885 121.01179 63 ft 3 kts 34°
2026-05-08 00:24 14.51905 121.01191 69 ft 4 kts 33°
2026-05-08 00:25 14.51929 121.01209 66 ft 4 kts 41°
2026-05-08 00:25 14.51942 121.01223 65 ft 0 kts 44°